Time,TemperatureF,DewpointF,PressureIn,WindDirection,WindDirectionDegrees,WindSpeedMPH,WindSpeedGustMPH,Humidity,HourlyPrecipIn,Conditions,Clouds,dailyrainin,SolarRadiationWatts/m^2,SoftwareType,DateUTC
2013-10-07 00:02:00,47.2,43.5,29.80,SW,234,1.0,2.0,87,0.00,,,0.00,0,Wunderground v.1.15,2013-10-07 05:02:00,
2013-10-07 00:04:00,47.2,43.5,29.80,SW,234,1.0,3.0,87,0.00,,,0.00,0,Wunderground v.1.15,2013-10-07 05:04:00,
2013-10-07 00:05:00,47.2,43.5,29.80,SW,234,1.0,3.0,87,0.00,,,0.00,0,Wunderground v.1.15,2013-10-07 05:05:00,
2013-10-07 00:07:00,47.2,43.2,29.80,WSW,237,1.0,3.0,86,0.00,,,0.00,0,Wunderground v.1.15,2013-10-07 05:07:00,
2013-10-07 00:09:00,47.2,43.2,29.80,WSW,237,1.0,3.0,86,0.00,,,0.00,0,Wunderground v.1.15,2013-10-07 05:09:00,
2013-10-07 00:10:00,47.2,43.2,29.80,WSW,238,1.0,3.0,86,0.00,,,0.00,0,Wunderground v.1.15,2013-10-07 05:10:00,
2013-10-07 00:12:00,47.2,43.2,29.80,WSW,238,1.0,3.0,86,0.00,,,0.00,0,Wunderground v.1.15,2013-10-07 05:12:00,
2013-10-07 00:15:00,47.3,43.3,29.81,WSW,238,1.0,3.0,86,0.00,,,0.00,0,Wunderground v.1.15,2013-10-07 05:15:00,
2013-10-07 00:16:00,47.3,43.3,29.81,WSW,238,1.0,3.0,86,0.00,,,0.00,0,Wunderground v.1.15,2013-10-07 05:16:00,
2013-10-07 00:17:00,47.4,43.4,29.81,WSW,238,1.0,3.0,86,0.00,,,0.00,0,Wunderground v.1.15,2013-10-07 05:17:00,
2013-10-07 00:18:00,47.4,43.4,29.81,SW,236,1.0,3.0,86,0.00,,,0.00,0,Wunderground v.1.15,2013-10-07 05:18:00,
2013-10-07 00:20:00,47.4,43.4,29.81,WSW,241,1.0,1.0,86,0.00,,,0.00,0,Wunderground v.1.15,2013-10-07 05:20:00,
2013-10-07 00:21:00,47.4,43.4,29.80,WSW,240,1.0,1.0,86,0.00,,,0.00,0,Wunderground v.1.15,2013-10-07 05:21:00,
2013-10-07 00:23:00,47.5,43.5,29.80,WSW,241,1.0,1.0,86,0.00,,,0.00,0,Wunderground v.1.15,2013-10-07 05:23:00,
2013-10-07 00:24:00,47.5,43.5,29.80,WSW,241,1.0,1.0,86,0.00,,,0.00,0,Wunderground v.1.15,2013-10-07 05:24:00,
2013-10-07 00:25:00,47.5,43.5,29.80,WSW,241,1.0,1.0,86,0.00,,,0.00,0,Wunderground v.1.15,2013-10-07 05:25:00,
2013-10-07 00:28:00,47.6,43.6,29.80,SW,234,1.0,2.0,86,0.00,,,0.00,0,Wunderground v.1.15,2013-10-07 05:28:00,
2013-10-07 00:30:00,47.6,43.6,29.80,NNW,328,1.0,1.0,86,0.00,,,0.00,0,Wunderground v.1.15,2013-10-07 05:30:00,
2013-10-07 00:33:00,47.7,43.7,29.81,West,266,1.0,2.0,86,0.00,,,0.00,0,Wunderground v.1.15,2013-10-07 05:33:00,
2013-10-07 00:34:00,47.7,44.0,29.81,West,266,1.0,2.0,87,0.00,,,0.00,0,Wunderground v.1.15,2013-10-07 05:34:00,
2013-10-07 00:38:00,47.8,44.1,29.81,West,266,1.0,2.0,87,0.00,,,0.00,0,Wunderground v.1.15,2013-10-07 05:38:00,
2013-10-07 00:39:00,47.8,44.1,29.81,West,266,1.0,2.0,87,0.00,,,0.00,0,Wunderground v.1.15,2013-10-07 05:39:00,
2013-10-07 00:41:00,47.8,44.1,29.81,WSW,240,1.0,2.0,87,0.00,,,0.00,0,Wunderground v.1.15,2013-10-07 05:41:00,
2013-10-07 00:43:00,47.9,44.2,29.81,WSW,238,1.0,2.0,87,0.00,,,0.00,0,Wunderground v.1.15,2013-10-07 05:43:00,
2013-10-07 00:44:00,47.9,44.2,29.81,SW,221,1.0,2.0,87,0.00,,,0.00,0,Wunderground v.1.15,2013-10-07 05:44:00,
2013-10-07 00:46:00,47.9,44.2,29.81,NW,309,1.0,4.0,87,0.00,,,0.00,0,Wunderground v.1.15,2013-10-07 05:46:00,
2013-10-07 00:47:00,47.9,44.2,29.81,NW,309,1.0,4.0,87,0.00,,,0.00,0,Wunderground v.1.15,2013-10-07 05:47:00,
2013-10-07 00:49:00,47.9,44.5,29.81,WSW,245,1.0,5.0,88,0.00,,,0.00,0,Wunderground v.1.15,2013-10-07 05:49:00,
2013-10-07 00:51:00,47.9,44.5,29.81,WSW,253,1.0,1.0,88,0.00,,,0.00,0,Wunderground v.1.15,2013-10-07 05:51:00,
2013-10-07 00:53:00,47.9,44.5,29.81,WSW,253,1.0,2.0,88,0.00,,,0.00,0,Wunderground v.1.15,2013-10-07 05:53:00,
2013-10-07 00:54:00,47.9,44.5,29.81,WSW,257,1.0,2.0,88,0.00,,,0.00,0,Wunderground v.1.15,2013-10-07 05:54:00,
2013-10-07 00:55:00,47.9,44.5,29.81,WSW,248,1.0,2.0,88,0.00,,,0.00,0,Wunderground v.1.15,2013-10-07 05:55:00,
2013-10-07 00:56:00,47.9,44.8,29.81,WSW,253,1.0,2.0,89,0.00,,,0.00,0,Wunderground v.1.15,2013-10-07 05:56:00,
2013-10-07 00:57:00,47.9,44.8,29.81,WSW,253,1.0,2.0,89,0.00,,,0.00,0,Wunderground v.1.15,2013-10-07 05:57:00,
2013-10-07 01:00:00,47.9,44.8,29.81,WSW,256,1.0,1.0,89,0.00,,,0.00,0,Wunderground v.1.15,2013-10-07 06:00:00,
2013-10-07 01:01:00,47.9,44.8,29.81,WSW,256,1.0,1.0,89,0.00,,,0.00,0,Wunderground v.1.15,2013-10-07 06:01:00,
2013-10-07 01:03:00,47.8,44.7,29.81,WSW,256,1.0,1.0,89,0.00,,,0.00,0,Wunderground v.1.15,2013-10-07 06:03:00,
2013-10-07 01:04:00,47.8,44.7,29.81,WSW,256,1.0,3.0,89,0.00,,,0.00,0,Wunderground v.1.15,2013-10-07 06:04:00,
2013-10-07 01:07:00,47.8,45.0,29.81,WSW,255,1.0,3.0,90,0.00,,,0.00,0,Wunderground v.1.15,2013-10-07 06:07:00,
2013-10-07 01:08:00,47.8,45.0,29.81,WSW,255,1.0,3.0,90,0.00,,,0.00,0,Wunderground v.1.15,2013-10-07 06:08:00,
2013-10-07 01:09:00,47.8,45.0,29.81,WSW,255,1.0,3.0,90,0.00,,,0.00,0,Wunderground v.1.15,2013-10-07 06:09:00,
2013-10-07 01:10:00,47.8,45.0,29.81,WSW,255,0.0,0.0,90,0.00,,,0.00,0,Wunderground v.1.15,2013-10-07 06:10:00,
2013-10-07 01:12:00,47.8,45.0,29.81,WSW,255,0.0,0.0,90,0.00,,,0.00,0,Wunderground v.1.15,2013-10-07 06:12:00,
2013-10-07 01:14:00,47.7,44.9,29.80,WSW,255,1.0,1.0,90,0.00,,,0.00,0,Wunderground v.1.15,2013-10-07 06:14:00,
2013-10-07 01:15:00,47.7,44.9,29.81,WSW,255,0.0,1.0,90,0.00,,,0.00,0,Wunderground v.1.15,2013-10-07 06:15:00,
2013-10-07 01:17:00,47.7,44.9,29.81,WSW,255,0.0,1.0,90,0.00,,,0.00,0,Wunderground v.1.15,2013-10-07 06:17:00,
2013-10-07 01:19:00,47.7,45.2,29.81,WSW,255,0.0,1.0,91,0.00,,,0.00,0,Wunderground v.1.15,2013-10-07 06:19:00,
2013-10-07 01:21:00,47.6,45.1,29.81,West,275,1.0,1.0,91,0.00,,,0.00,0,Wunderground v.1.15,2013-10-07 06:21:00,
2013-10-07 01:23:00,47.6,45.1,29.81,West,275,1.0,2.0,91,0.00,,,0.00,0,Wunderground v.1.15,2013-10-07 06:23:00,
2013-10-07 01:25:00,47.6,45.1,29.81,West,275,0.0,2.0,91,0.00,,,0.01,0,Wunderground v.1.15,2013-10-07 06:25:00,
2013-10-07 01:27:00,47.6,45.1,29.81,West,275,0.0,2.0,91,0.00,,,0.01,0,Wunderground v.1.15,2013-10-07 06:27:00,
2013-10-07 01:28:00,47.6,45.1,29.81,West,275,0.0,2.0,91,0.00,,,0.01,0,Wunderground v.1.15,2013-10-07 06:28:00,
2013-10-07 01:30:00,47.6,45.1,29.81,West,275,1.0,1.0,91,0.00,,,0.01,0,Wunderground v.1.15,2013-10-07 06:30:00,
2013-10-07 01:33:00,47.6,45.1,29.81,NW,321,1.0,5.0,91,0.00,,,0.01,0,Wunderground v.1.15,2013-10-07 06:33:00,
2013-10-07 01:34:00,47.6,45.4,29.81,NW,313,1.0,5.0,92,0.00,,,0.01,0,Wunderground v.1.15,2013-10-07 06:34:00,
2013-10-07 01:37:00,47.7,45.5,29.81,West,281,2.0,5.0,92,0.00,,,0.01,0,Wunderground v.1.15,2013-10-07 06:37:00,
2013-10-07 01:40:00,47.7,45.5,29.82,West,259,2.0,3.0,92,0.00,,,0.01,0,Wunderground v.1.15,2013-10-07 06:40:00,
2013-10-07 01:41:00,47.7,45.5,29.82,West,275,2.0,3.0,92,0.00,,,0.01,0,Wunderground v.1.15,2013-10-07 06:41:00,
2013-10-07 01:42:00,47.8,45.6,29.82,NW,306,2.0,4.0,92,0.00,,,0.01,0,Wunderground v.1.15,2013-10-07 06:42:00,
2013-10-07 01:44:00,47.8,45.6,29.82,WNW,284,3.0,4.0,92,0.00,,,0.01,0,Wunderground v.1.15,2013-10-07 06:44:00,
2013-10-07 01:45:00,47.8,45.6,29.82,WNW,284,3.0,4.0,92,0.00,,,0.01,0,Wunderground v.1.15,2013-10-07 06:45:00,
2013-10-07 01:46:00,47.9,45.7,29.82,West,276,2.0,4.0,92,0.00,,,0.01,0,Wunderground v.1.15,2013-10-07 06:46:00,
2013-10-07 01:50:00,47.9,46.0,29.82,WNW,294,2.0,2.0,93,0.00,,,0.01,0,Wunderground v.1.15,2013-10-07 06:50:00,
2013-10-07 01:52:00,48.0,46.1,29.82,WNW,284,2.0,2.0,93,0.00,,,0.01,0,Wunderground v.1.15,2013-10-07 06:52:00,
2013-10-07 01:53:00,48.1,46.2,29.82,WNW,285,2.0,2.0,93,0.00,,,0.01,0,Wunderground v.1.15,2013-10-07 06:53:00,
2013-10-07 01:55:00,48.1,46.2,29.82,WSW,255,1.0,3.0,93,0.00,,,0.01,0,Wunderground v.1.15,2013-10-07 06:55:00,
2013-10-07 01:56:00,48.1,46.2,29.82,NW,309,1.0,3.0,93,0.00,,,0.01,0,Wunderground v.1.15,2013-10-07 06:56:00,
2013-10-07 01:59:00,48.1,46.2,29.82,West,269,2.0,3.0,93,0.00,,,0.01,0,Wunderground v.1.15,2013-10-07 06:59:00,
2013-10-07 02:01:00,48.2,46.3,29.82,WNW,286,2.0,2.0,93,0.00,,,0.01,0,Wunderground v.1.15,2013-10-07 07:01:00,
2013-10-07 02:04:00,48.2,46.3,29.82,NW,323,2.0,6.0,93,0.00,,,0.01,0,Wunderground v.1.15,2013-10-07 07:04:00,
2013-10-07 02:05:00,48.3,46.4,29.82,NW,315,2.0,6.0,93,0.00,,,0.01,0,Wunderground v.1.15,2013-10-07 07:05:00,
2013-10-07 02:06:00,48.3,46.4,29.83,WNW,293,2.0,9.0,93,0.00,,,0.01,0,Wunderground v.1.15,2013-10-07 07:06:00,
2013-10-07 02:09:00,48.3,46.4,29.83,NW,312,3.0,9.0,93,0.00,,,0.01,0,Wunderground v.1.15,2013-10-07 07:09:00,
2013-10-07 02:12:00,48.3,46.4,29.83,NW,315,3.0,3.0,93,0.00,,,0.01,0,Wunderground v.1.15,2013-10-07 07:12:00,
2013-10-07 02:13:00,48.3,46.4,29.83,West,275,3.0,5.0,93,0.00,,,0.01,0,Wunderground v.1.15,2013-10-07 07:13:00,
2013-10-07 02:14:00,48.3,46.4,29.83,WSW,240,3.0,9.0,93,0.00,,,0.01,0,Wunderground v.1.15,2013-10-07 07:14:00,
2013-10-07 02:15:00,48.3,46.4,29.83,West,269,4.0,9.0,93,0.00,,,0.01,0,Wunderground v.1.15,2013-10-07 07:15:00,
2013-10-07 02:16:00,48.3,46.4,29.83,West,279,3.0,9.0,93,0.00,,,0.01,0,Wunderground v.1.15,2013-10-07 07:16:00,
2013-10-07 02:17:00,48.3,46.4,29.83,West,261,3.0,9.0,93,0.00,,,0.01,0,Wunderground v.1.15,2013-10-07 07:17:00,
2013-10-07 02:20:00,48.3,46.4,29.83,NW,316,4.0,4.0,93,0.00,,,0.01,0,Wunderground v.1.15,2013-10-07 07:20:00,
2013-10-07 02:21:00,48.3,46.4,29.83,WSW,242,5.0,5.0,93,0.00,,,0.01,0,Wunderground v.1.15,2013-10-07 07:21:00,
2013-10-07 02:22:00,48.2,46.3,29.83,WSW,244,5.0,6.0,93,0.00,,,0.01,0,Wunderground v.1.15,2013-10-07 07:22:00,
2013-10-07 02:25:00,48.2,46.3,29.83,NW,310,5.0,6.0,93,0.00,,,0.01,0,Wunderground v.1.15,2013-10-07 07:25:00,
2013-10-07 02:26:00,48.2,46.3,29.83,NNE,31,5.0,6.0,93,0.00,,,0.01,0,Wunderground v.1.15,2013-10-07 07:26:00,
2013-10-07 02:27:00,48.2,46.3,29.83,NW,311,5.0,7.0,93,0.00,,,0.01,0,Wunderground v.1.15,2013-10-07 07:27:00,
2013-10-07 02:30:00,48.3,46.4,29.83,NW,325,4.0,4.0,93,0.00,,,0.01,0,Wunderground v.1.15,2013-10-07 07:30:00,
2013-10-07 02:31:00,48.2,46.3,29.83,WNW,295,4.0,4.0,93,0.00,,,0.01,0,Wunderground v.1.15,2013-10-07 07:31:00,
2013-10-07 02:33:00,48.3,46.4,29.83,West,276,4.0,7.0,93,0.00,,,0.01,0,Wunderground v.1.15,2013-10-07 07:33:00,
2013-10-07 02:34:00,48.2,46.3,29.83,West,279,4.0,7.0,93,0.00,,,0.01,0,Wunderground v.1.15,2013-10-07 07:34:00,
2013-10-07 02:37:00,48.2,46.3,29.83,West,262,4.0,7.0,93,0.00,,,0.01,0,Wunderground v.1.15,2013-10-07 07:37:00,
2013-10-07 02:38:00,48.2,46.3,29.83,NW,319,4.0,7.0,93,0.00,,,0.01,0,Wunderground v.1.15,2013-10-07 07:38:00,
2013-10-07 02:40:00,48.2,46.3,29.83,NW,325,4.0,6.0,93,0.00,,,0.01,0,Wunderground v.1.15,2013-10-07 07:40:00,
2013-10-07 02:42:00,48.2,46.3,29.83,NNW,327,4.0,6.0,93,0.00,,,0.01,0,Wunderground v.1.15,2013-10-07 07:42:00,
2013-10-07 02:43:00,48.2,46.3,29.83,West,265,4.0,6.0,93,0.00,,,0.01,0,Wunderground v.1.15,2013-10-07 07:43:00,
2013-10-07 02:45:00,48.2,46.3,29.83,WNW,291,4.0,6.0,93,0.00,,,0.01,0,Wunderground v.1.15,2013-10-07 07:45:00,
2013-10-07 02:47:00,48.2,46.3,29.83,NW,320,3.0,6.0,93,0.00,,,0.01,0,Wunderground v.1.15,2013-10-07 07:47:00,
2013-10-07 02:50:00,48.2,46.3,29.83,NW,325,3.0,3.0,93,0.00,,,0.01,0,Wunderground v.1.15,2013-10-07 07:50:00,
2013-10-07 02:51:00,48.2,46.3,29.83,SSW,207,3.0,7.0,93,0.00,,,0.01,0,Wunderground v.1.15,2013-10-07 07:51:00,
2013-10-07 02:52:00,48.1,46.2,29.83,WNW,293,3.0,7.0,93,0.00,,,0.01,0,Wunderground v.1.15,2013-10-07 07:52:00,
2013-10-07 02:54:00,48.1,46.2,29.83,WNW,296,3.0,7.0,93,0.00,,,0.01,0,Wunderground v.1.15,2013-10-07 07:54:00,
2013-10-07 02:55:00,48.0,46.1,29.83,WSW,244,4.0,7.0,93,0.00,,,0.01,0,Wunderground v.1.15,2013-10-07 07:55:00,
2013-10-07 02:57:00,48.0,45.8,29.83,NW,319,4.0,8.0,92,0.00,,,0.01,0,Wunderground v.1.15,2013-10-07 07:57:00,
2013-10-07 03:01:00,47.9,45.7,29.84,NW,326,4.0,8.0,92,0.00,,,0.01,0,Wunderground v.1.15,2013-10-07 08:01:00,
2013-10-07 03:02:00,47.8,45.6,29.84,NW,313,4.0,8.0,92,0.00,,,0.01,0,Wunderground v.1.15,2013-10-07 08:02:00,
2013-10-07 03:05:00,47.7,45.5,29.84,NNW,331,3.0,8.0,92,0.00,,,0.01,0,Wunderground v.1.15,2013-10-07 08:05:00,
2013-10-07 03:06:00,47.8,45.6,29.84,West,267,3.0,8.0,92,0.00,,,0.01,0,Wunderground v.1.15,2013-10-07 08:06:00,
2013-10-07 03:08:00,47.7,45.5,29.84,West,267,2.0,8.0,92,0.00,,,0.01,0,Wunderground v.1.15,2013-10-07 08:08:00,
2013-10-07 03:11:00,47.7,45.5,29.84,West,279,2.0,6.0,92,0.00,,,0.01,0,Wunderground v.1.15,2013-10-07 08:11:00,
2013-10-07 03:12:00,47.7,45.5,29.84,NW,309,2.0,6.0,92,0.00,,,0.01,0,Wunderground v.1.15,2013-10-07 08:12:00,
2013-10-07 03:15:00,47.6,45.4,29.84,WNW,282,2.0,6.0,92,0.00,,,0.01,0,Wunderground v.1.15,2013-10-07 08:15:00,
2013-10-07 03:18:00,47.6,45.4,29.84,NNW,342,3.0,6.0,92,0.00,,,0.01,0,Wunderground v.1.15,2013-10-07 08:18:00,
2013-10-07 03:22:00,47.5,45.0,29.84,WNW,288,3.0,4.0,91,0.00,,,0.01,0,Wunderground v.1.15,2013-10-07 08:22:00,
2013-10-07 03:23:00,47.4,44.9,29.84,West,271,3.0,4.0,91,0.00,,,0.01,0,Wunderground v.1.15,2013-10-07 08:23:00,
2013-10-07 03:24:00,47.4,44.9,29.84,NNW,329,3.0,5.0,91,0.00,,,0.01,0,Wunderground v.1.15,2013-10-07 08:24:00,
2013-10-07 03:26:00,47.4,44.9,29.84,WNW,298,3.0,5.0,91,0.00,,,0.01,0,Wunderground v.1.15,2013-10-07 08:26:00,
2013-10-07 03:28:00,47.3,44.8,29.84,WNW,295,4.0,5.0,91,0.00,,,0.01,0,Wunderground v.1.15,2013-10-07 08:28:00,
2013-10-07 03:29:00,47.3,44.8,29.84,WNW,295,4.0,5.0,91,0.00,,,0.01,0,Wunderground v.1.15,2013-10-07 08:29:00,
2013-10-07 03:32:00,47.2,44.7,29.84,WNW,292,3.0,11.0,91,0.00,,,0.01,0,Wunderground v.1.15,2013-10-07 08:32:00,
2013-10-07 03:35:00,47.1,44.6,29.84,West,261,3.0,11.0,91,0.00,,,0.01,0,Wunderground v.1.15,2013-10-07 08:35:00,
2013-10-07 03:36:00,47.1,44.6,29.85,West,267,3.0,11.0,91,0.00,,,0.01,0,Wunderground v.1.15,2013-10-07 08:36:00,
2013-10-07 03:37:00,47.1,44.3,29.85,West,259,3.0,11.0,90,0.00,,,0.01,0,Wunderground v.1.15,2013-10-07 08:37:00,
2013-10-07 03:38:00,47.0,44.2,29.85,WNW,291,3.0,11.0,90,0.00,,,0.01,0,Wunderground v.1.15,2013-10-07 08:38:00,
2013-10-07 03:40:00,47.0,44.2,29.85,NNW,329,3.0,3.0,90,0.00,,,0.01,0,Wunderground v.1.15,2013-10-07 08:40:00,
2013-10-07 03:41:00,47.0,44.2,29.85,NNW,328,3.0,3.0,90,0.00,,,0.01,0,Wunderground v.1.15,2013-10-07 08:41:00,
2013-10-07 03:42:00,47.0,44.5,29.85,NNW,328,3.0,3.0,91,0.00,,,0.01,0,Wunderground v.1.15,2013-10-07 08:42:00,
2013-10-07 03:47:00,47.0,44.5,29.85,West,275,2.0,5.0,91,0.00,,,0.01,0,Wunderground v.1.15,2013-10-07 08:47:00,
2013-10-07 03:48:00,47.0,44.2,29.85,NNW,341,2.0,5.0,90,0.00,,,0.01,0,Wunderground v.1.15,2013-10-07 08:48:00,
2013-10-07 03:49:00,47.0,44.2,29.85,WNW,293,2.0,5.0,90,0.00,,,0.01,0,Wunderground v.1.15,2013-10-07 08:49:00,
2013-10-07 03:50:00,47.0,44.2,29.85,WNW,293,2.0,2.0,90,0.00,,,0.01,0,Wunderground v.1.15,2013-10-07 08:50:00,
2013-10-07 03:51:00,47.0,44.2,29.85,WNW,293,2.0,3.0,90,0.00,,,0.01,0,Wunderground v.1.15,2013-10-07 08:51:00,
2013-10-07 03:52:00,47.0,44.2,29.85,WNW,285,2.0,3.0,90,0.00,,,0.01,0,Wunderground v.1.15,2013-10-07 08:52:00,
2013-10-07 03:53:00,47.0,44.2,29.85,WSW,242,3.0,5.0,90,0.00,,,0.01,0,Wunderground v.1.15,2013-10-07 08:53:00,
2013-10-07 03:57:00,46.9,44.1,29.86,NNW,331,3.0,5.0,90,0.00,,,0.01,0,Wunderground v.1.15,2013-10-07 08:57:00,
2013-10-07 03:58:00,46.9,44.1,29.86,NNW,327,3.0,5.0,90,0.00,,,0.01,0,Wunderground v.1.15,2013-10-07 08:58:00,
2013-10-07 03:59:00,46.9,44.1,29.86,WNW,300,3.0,5.0,90,0.00,,,0.01,0,Wunderground v.1.15,2013-10-07 08:59:00,
2013-10-07 04:00:00,46.9,44.1,29.86,WNW,300,2.0,2.0,90,0.00,,,0.01,0,Wunderground v.1.15,2013-10-07 09:00:00,
2013-10-07 04:01:00,46.9,44.1,29.86,WNW,300,2.0,2.0,90,0.00,,,0.01,0,Wunderground v.1.15,2013-10-07 09:01:00,
2013-10-07 04:04:00,46.9,44.1,29.86,WNW,300,1.0,2.0,90,0.00,,,0.01,0,Wunderground v.1.15,2013-10-07 09:04:00,
2013-10-07 04:06:00,46.8,44.0,29.86,WNW,300,1.0,3.0,90,0.00,,,0.01,0,Wunderground v.1.15,2013-10-07 09:06:00,
2013-10-07 04:07:00,46.8,44.0,29.86,WNW,300,1.0,3.0,90,0.00,,,0.01,0,Wunderground v.1.15,2013-10-07 09:07:00,
2013-10-07 04:08:00,46.8,44.0,29.86,WNW,300,1.0,3.0,90,0.00,,,0.01,0,Wunderground v.1.15,2013-10-07 09:08:00,
2013-10-07 04:12:00,46.8,44.0,29.86,West,278,1.0,2.0,90,0.00,,,0.01,0,Wunderground v.1.15,2013-10-07 09:12:00,
2013-10-07 04:13:00,46.8,44.0,29.86,West,278,1.0,2.0,90,0.00,,,0.01,0,Wunderground v.1.15,2013-10-07 09:13:00,
2013-10-07 04:14:00,46.7,43.9,29.87,West,278,1.0,2.0,90,0.00,,,0.01,0,Wunderground v.1.15,2013-10-07 09:14:00,
2013-10-07 04:15:00,46.7,43.9,29.86,West,278,1.0,2.0,90,0.00,,,0.01,0,Wunderground v.1.15,2013-10-07 09:15:00,
2013-10-07 04:16:00,46.7,43.9,29.86,West,278,2.0,2.0,90,0.00,,,0.01,0,Wunderground v.1.15,2013-10-07 09:16:00,
2013-10-07 04:20:00,46.6,44.1,29.87,WNW,284,1.0,3.0,91,0.00,,,0.01,0,Wunderground v.1.15,2013-10-07 09:20:00,
2013-10-07 04:23:00,46.6,44.1,29.87,West,267,2.0,3.0,91,0.00,,,0.01,0,Wunderground v.1.15,2013-10-07 09:23:00,
2013-10-07 04:26:00,46.6,44.1,29.87,West,267,1.0,3.0,91,0.00,,,0.01,0,Wunderground v.1.15,2013-10-07 09:26:00,
2013-10-07 04:28:00,46.6,44.1,29.87,West,267,1.0,3.0,91,0.00,,,0.01,0,Wunderground v.1.15,2013-10-07 09:28:00,
2013-10-07 04:29:00,46.6,44.1,29.87,West,267,1.0,3.0,91,0.00,,,0.01,0,Wunderground v.1.15,2013-10-07 09:29:00,
2013-10-07 04:32:00,46.5,44.0,29.87,West,267,1.0,1.0,91,0.00,,,0.01,0,Wunderground v.1.15,2013-10-07 09:32:00,
2013-10-07 04:33:00,46.5,44.0,29.87,West,267,1.0,1.0,91,0.00,,,0.01,0,Wunderground v.1.15,2013-10-07 09:33:00,
2013-10-07 04:34:00,46.5,44.0,29.87,West,267,1.0,2.0,91,0.00,,,0.01,0,Wunderground v.1.15,2013-10-07 09:34:00,
2013-10-07 04:35:00,46.5,44.0,29.87,West,267,1.0,2.0,91,0.00,,,0.01,0,Wunderground v.1.15,2013-10-07 09:35:00,
2013-10-07 04:36:00,46.5,44.0,29.87,West,267,1.0,2.0,91,0.00,,,0.01,0,Wunderground v.1.15,2013-10-07 09:36:00,
2013-10-07 04:38:00,46.5,44.0,29.87,West,267,1.0,2.0,91,0.00,,,0.01,0,Wunderground v.1.15,2013-10-07 09:38:00,
2013-10-07 04:41:00,46.4,43.9,29.88,West,267,0.0,0.0,91,0.00,,,0.01,0,Wunderground v.1.15,2013-10-07 09:41:00,
2013-10-07 04:42:00,46.3,43.8,29.87,West,267,0.0,0.0,91,0.00,,,0.01,0,Wunderground v.1.15,2013-10-07 09:42:00,
2013-10-07 04:43:00,46.3,43.8,29.87,West,267,0.0,0.0,91,0.00,,,0.01,0,Wunderground v.1.15,2013-10-07 09:43:00,
2013-10-07 04:45:00,46.3,43.8,29.88,West,267,0.0,0.0,91,0.00,,,0.01,0,Wunderground v.1.15,2013-10-07 09:45:00,
2013-10-07 04:46:00,46.2,43.7,29.88,West,267,0.0,0.0,91,0.00,,,0.01,0,Wunderground v.1.15,2013-10-07 09:46:00,
2013-10-07 04:47:00,46.2,43.7,29.88,West,267,0.0,0.0,91,0.00,,,0.01,0,Wunderground v.1.15,2013-10-07 09:47:00,
2013-10-07 04:48:00,46.2,43.7,29.88,West,267,0.0,0.0,91,0.00,,,0.01,0,Wunderground v.1.15,2013-10-07 09:48:00,
2013-10-07 04:50:00,46.2,43.7,29.88,West,267,0.0,0.0,91,0.00,,,0.01,0,Wunderground v.1.15,2013-10-07 09:50:00,
2013-10-07 04:51:00,46.1,43.6,29.88,West,267,0.0,0.0,91,0.00,,,0.01,0,Wunderground v.1.15,2013-10-07 09:51:00,
2013-10-07 04:52:00,46.1,43.6,29.88,West,267,0.0,0.0,91,0.00,,,0.01,0,Wunderground v.1.15,2013-10-07 09:52:00,
2013-10-07 04:53:00,46.1,43.6,29.88,West,267,0.0,0.0,91,0.00,,,0.01,0,Wunderground v.1.15,2013-10-07 09:53:00,
2013-10-07 04:57:00,46.1,43.6,29.88,West,267,0.0,0.0,91,0.00,,,0.01,0,Wunderground v.1.15,2013-10-07 09:57:00,
2013-10-07 04:59:00,46.1,43.6,29.88,West,267,0.0,1.0,91,0.00,,,0.01,0,Wunderground v.1.15,2013-10-07 09:59:00,
2013-10-07 05:00:00,46.0,43.5,29.88,West,267,0.0,1.0,91,0.00,,,0.01,0,Wunderground v.1.15,2013-10-07 10:00:00,
2013-10-07 05:01:00,46.0,43.5,29.88,West,267,0.0,2.0,91,0.00,,,0.01,0,Wunderground v.1.15,2013-10-07 10:01:00,
2013-10-07 05:03:00,46.0,43.5,29.88,West,267,1.0,2.0,91,0.00,,,0.01,0,Wunderground v.1.15,2013-10-07 10:03:00,
2013-10-07 05:04:00,46.0,43.5,29.88,West,267,1.0,2.0,91,0.00,,,0.01,0,Wunderground v.1.15,2013-10-07 10:04:00,
2013-10-07 05:05:00,45.9,43.4,29.88,West,267,1.0,2.0,91,0.00,,,0.01,0,Wunderground v.1.15,2013-10-07 10:05:00,
2013-10-07 05:07:00,45.9,43.4,29.88,West,267,1.0,2.0,91,0.00,,,0.01,0,Wunderground v.1.15,2013-10-07 10:07:00,
2013-10-07 05:09:00,45.9,43.4,29.88,West,267,1.0,2.0,91,0.00,,,0.01,0,Wunderground v.1.15,2013-10-07 10:09:00,
2013-10-07 05:11:00,45.9,43.4,29.88,West,267,1.0,1.0,91,0.00,,,0.01,0,Wunderground v.1.15,2013-10-07 10:11:00,
2013-10-07 05:12:00,45.9,43.7,29.88,West,267,0.0,1.0,92,0.00,,,0.01,0,Wunderground v.1.15,2013-10-07 10:12:00,
2013-10-07 05:13:00,45.9,43.7,29.88,West,267,0.0,1.0,92,0.00,,,0.01,0,Wunderground v.1.15,2013-10-07 10:13:00,
2013-10-07 05:16:00,45.8,43.6,29.88,West,267,0.0,1.0,92,0.00,,,0.01,0,Wunderground v.1.15,2013-10-07 10:16:00,
2013-10-07 05:18:00,45.8,43.6,29.89,West,267,0.0,1.0,92,0.00,,,0.01,0,Wunderground v.1.15,2013-10-07 10:18:00,
2013-10-07 05:21:00,45.8,43.6,29.88,West,267,0.0,0.0,92,0.00,,,0.01,0,Wunderground v.1.15,2013-10-07 10:21:00,
2013-10-07 05:22:00,45.8,43.6,29.88,West,267,0.0,0.0,92,0.00,,,0.01,0,Wunderground v.1.15,2013-10-07 10:22:00,
2013-10-07 05:23:00,45.8,43.6,29.88,West,267,0.0,0.0,92,0.00,,,0.01,0,Wunderground v.1.15,2013-10-07 10:23:00,
2013-10-07 05:24:00,45.8,43.6,29.89,West,267,0.0,0.0,92,0.00,,,0.01,0,Wunderground v.1.15,2013-10-07 10:24:00,
2013-10-07 05:26:00,45.7,43.5,29.89,West,267,0.0,1.0,92,0.00,,,0.01,0,Wunderground v.1.15,2013-10-07 10:26:00,
2013-10-07 05:27:00,45.7,43.5,29.89,West,267,0.0,1.0,92,0.00,,,0.01,0,Wunderground v.1.15,2013-10-07 10:27:00,
2013-10-07 05:29:00,45.7,43.5,29.89,West,267,0.0,1.0,92,0.00,,,0.01,0,Wunderground v.1.15,2013-10-07 10:29:00,
2013-10-07 05:32:00,45.6,43.4,29.89,West,267,0.0,0.0,92,0.00,,,0.01,0,Wunderground v.1.15,2013-10-07 10:32:00,
2013-10-07 05:33:00,45.6,43.4,29.89,West,267,0.0,0.0,92,0.00,,,0.01,0,Wunderground v.1.15,2013-10-07 10:33:00,
2013-10-07 05:35:00,45.6,43.4,29.89,West,267,0.0,3.0,92,0.00,,,0.01,0,Wunderground v.1.15,2013-10-07 10:35:00,
2013-10-07 05:36:00,45.6,43.4,29.89,West,267,0.0,3.0,92,0.00,,,0.01,0,Wunderground v.1.15,2013-10-07 10:36:00,
2013-10-07 05:38:00,45.6,43.4,29.89,West,267,0.0,3.0,92,0.00,,,0.01,0,Wunderground v.1.15,2013-10-07 10:38:00,
2013-10-07 05:39:00,45.6,43.4,29.89,West,267,0.0,3.0,92,0.00,,,0.01,0,Wunderground v.1.15,2013-10-07 10:39:00,
2013-10-07 05:41:00,45.6,43.4,29.89,West,267,0.0,0.0,92,0.00,,,0.01,0,Wunderground v.1.15,2013-10-07 10:41:00,
2013-10-07 05:43:00,45.6,43.4,29.89,West,267,1.0,2.0,92,0.00,,,0.01,0,Wunderground v.1.15,2013-10-07 10:43:00,
2013-10-07 05:44:00,45.6,43.4,29.89,West,267,1.0,2.0,92,0.00,,,0.01,0,Wunderground v.1.15,2013-10-07 10:44:00,
2013-10-07 05:47:00,45.6,43.4,29.89,West,267,0.0,2.0,92,0.00,,,0.01,0,Wunderground v.1.15,2013-10-07 10:47:00,
2013-10-07 05:48:00,45.6,43.4,29.89,West,267,0.0,2.0,92,0.00,,,0.01,0,Wunderground v.1.15,2013-10-07 10:48:00,
2013-10-07 05:50:00,45.6,43.4,29.89,West,267,0.0,0.0,92,0.00,,,0.01,0,Wunderground v.1.15,2013-10-07 10:50:00,
2013-10-07 05:51:00,45.6,43.4,29.89,West,267,0.0,0.0,92,0.00,,,0.01,0,Wunderground v.1.15,2013-10-07 10:51:00,
2013-10-07 05:54:00,45.6,43.7,29.89,West,267,0.0,1.0,93,0.00,,,0.01,0,Wunderground v.1.15,2013-10-07 10:54:00,
2013-10-07 05:55:00,45.6,43.7,29.89,West,267,0.0,1.0,93,0.00,,,0.01,0,Wunderground v.1.15,2013-10-07 10:55:00,
2013-10-07 05:56:00,45.6,43.7,29.89,West,267,0.0,1.0,93,0.00,,,0.01,0,Wunderground v.1.15,2013-10-07 10:56:00,
2013-10-07 05:58:00,45.6,43.7,29.89,West,267,0.0,1.0,93,0.00,,,0.01,0,Wunderground v.1.15,2013-10-07 10:58:00,
2013-10-07 05:59:00,45.6,43.7,29.89,West,267,0.0,1.0,93,0.00,,,0.01,0,Wunderground v.1.15,2013-10-07 10:59:00,
2013-10-07 06:00:00,45.6,43.7,29.89,West,267,0.0,0.0,93,0.00,,,0.01,0,Wunderground v.1.15,2013-10-07 11:00:00,
2013-10-07 06:01:00,45.6,43.7,29.89,West,267,0.0,0.0,93,0.00,,,0.01,0,Wunderground v.1.15,2013-10-07 11:01:00,
2013-10-07 06:05:00,45.6,43.7,29.90,West,267,0.0,1.0,93,0.00,,,0.01,0,Wunderground v.1.15,2013-10-07 11:05:00,
2013-10-07 06:06:00,45.6,43.7,29.90,West,267,0.0,1.0,93,0.00,,,0.01,0,Wunderground v.1.15,2013-10-07 11:06:00,
2013-10-07 06:07:00,45.6,43.7,29.90,West,267,0.0,1.0,93,0.00,,,0.01,0,Wunderground v.1.15,2013-10-07 11:07:00,
2013-10-07 06:08:00,45.6,43.7,29.90,West,267,0.0,1.0,93,0.00,,,0.01,0,Wunderground v.1.15,2013-10-07 11:08:00,
2013-10-07 06:10:00,45.6,43.7,29.90,West,267,0.0,0.0,93,0.00,,,0.01,0,Wunderground v.1.15,2013-10-07 11:10:00,
2013-10-07 06:13:00,45.6,43.7,29.90,West,267,0.0,0.0,93,0.00,,,0.01,0,Wunderground v.1.15,2013-10-07 11:13:00,
2013-10-07 06:14:00,45.6,43.7,29.90,West,267,0.0,0.0,93,0.00,,,0.01,0,Wunderground v.1.15,2013-10-07 11:14:00,
2013-10-07 06:15:00,45.6,43.7,29.90,West,267,0.0,0.0,93,0.00,,,0.01,0,Wunderground v.1.15,2013-10-07 11:15:00,
2013-10-07 06:16:00,45.6,43.7,29.90,West,267,0.0,0.0,93,0.00,,,0.01,0,Wunderground v.1.15,2013-10-07 11:16:00,
2013-10-07 06:19:00,45.6,43.7,29.90,West,267,0.0,0.0,93,0.00,,,0.01,0,Wunderground v.1.15,2013-10-07 11:19:00,
2013-10-07 06:20:00,45.5,43.6,29.90,West,267,0.0,0.0,93,0.00,,,0.01,0,Wunderground v.1.15,2013-10-07 11:20:00,
2013-10-07 06:21:00,45.5,43.6,29.90,West,267,0.0,0.0,93,0.00,,,0.01,0,Wunderground v.1.15,2013-10-07 11:21:00,
2013-10-07 06:24:00,45.5,43.6,29.90,West,267,0.0,0.0,93,0.00,,,0.01,0,Wunderground v.1.15,2013-10-07 11:24:00,
2013-10-07 06:25:00,45.5,43.6,29.90,West,267,0.0,0.0,93,0.00,,,0.01,0,Wunderground v.1.15,2013-10-07 11:25:00,
2013-10-07 06:27:00,45.5,43.6,29.90,West,267,0.0,0.0,93,0.00,,,0.01,0,Wunderground v.1.15,2013-10-07 11:27:00,
2013-10-07 06:31:00,45.5,43.6,29.91,West,267,0.0,0.0,93,0.00,,,0.01,0,Wunderground v.1.15,2013-10-07 11:31:00,
2013-10-07 06:32:00,45.4,43.5,29.91,West,267,0.0,0.0,93,0.00,,,0.01,0,Wunderground v.1.15,2013-10-07 11:32:00,
2013-10-07 06:34:00,45.5,43.6,29.91,West,267,0.0,0.0,93,0.00,,,0.01,0,Wunderground v.1.15,2013-10-07 11:34:00,
2013-10-07 06:37:00,45.5,43.6,29.91,West,267,0.0,0.0,93,0.00,,,0.01,0,Wunderground v.1.15,2013-10-07 11:37:00,
2013-10-07 06:39:00,45.5,43.6,29.91,West,267,0.0,0.0,93,0.00,,,0.01,0,Wunderground v.1.15,2013-10-07 11:39:00,
2013-10-07 06:40:00,45.4,43.5,29.91,West,267,0.0,0.0,93,0.00,,,0.01,0,Wunderground v.1.15,2013-10-07 11:40:00,
2013-10-07 06:42:00,45.5,43.6,29.91,West,267,0.0,0.0,93,0.00,,,0.01,0,Wunderground v.1.15,2013-10-07 11:42:00,
2013-10-07 06:43:00,45.5,43.6,29.91,West,267,0.0,0.0,93,0.00,,,0.01,0,Wunderground v.1.15,2013-10-07 11:43:00,
2013-10-07 06:44:00,45.4,43.5,29.91,West,267,0.0,0.0,93,0.00,,,0.01,0,Wunderground v.1.15,2013-10-07 11:44:00,
2013-10-07 06:47:00,45.4,43.5,29.91,West,267,0.0,2.0,93,0.00,,,0.01,0,Wunderground v.1.15,2013-10-07 11:47:00,
2013-10-07 06:48:00,45.4,43.5,29.92,West,267,0.0,2.0,93,0.00,,,0.01,0,Wunderground v.1.15,2013-10-07 11:48:00,
2013-10-07 06:50:00,45.4,43.5,29.91,West,267,0.0,1.0,93,0.00,,,0.01,0,Wunderground v.1.15,2013-10-07 11:50:00,
2013-10-07 06:51:00,45.4,43.5,29.91,West,267,0.0,1.0,93,0.00,,,0.01,0,Wunderground v.1.15,2013-10-07 11:51:00,
2013-10-07 06:53:00,45.4,43.5,29.91,West,267,0.0,1.0,93,0.00,,,0.01,0,Wunderground v.1.15,2013-10-07 11:53:00,
2013-10-07 06:55:00,45.4,43.5,29.92,West,267,0.0,1.0,93,0.00,,,0.01,0,Wunderground v.1.15,2013-10-07 11:55:00,
2013-10-07 06:56:00,45.4,43.5,29.92,West,267,0.0,1.0,93,0.00,,,0.01,0,Wunderground v.1.15,2013-10-07 11:56:00,
2013-10-07 06:57:00,45.3,43.4,29.92,West,267,0.0,1.0,93,0.00,,,0.01,0,Wunderground v.1.15,2013-10-07 11:57:00,
2013-10-07 07:00:00,45.3,43.4,29.92,West,267,0.0,0.0,93,0.00,,,0.01,0,Wunderground v.1.15,2013-10-07 12:00:00,
2013-10-07 07:01:00,45.3,43.4,29.92,West,267,0.0,0.0,93,0.00,,,0.01,0,Wunderground v.1.15,2013-10-07 12:01:00,
2013-10-07 07:03:00,45.2,43.3,29.92,West,267,0.0,0.0,93,0.00,,,0.01,0,Wunderground v.1.15,2013-10-07 12:03:00,
2013-10-07 07:05:00,45.2,43.3,29.92,West,267,0.0,0.0,93,0.00,,,0.01,0,Wunderground v.1.15,2013-10-07 12:05:00,
2013-10-07 07:06:00,45.2,43.3,29.92,West,267,0.0,0.0,93,0.00,,,0.01,0,Wunderground v.1.15,2013-10-07 12:06:00,
2013-10-07 07:08:00,45.2,43.3,29.92,West,267,0.0,0.0,93,0.00,,,0.01,0,Wunderground v.1.15,2013-10-07 12:08:00,
2013-10-07 07:09:00,45.1,43.2,29.92,West,267,0.0,0.0,93,0.00,,,0.01,0,Wunderground v.1.15,2013-10-07 12:09:00,
2013-10-07 07:10:00,45.1,43.2,29.92,West,267,0.0,0.0,93,0.00,,,0.01,0,Wunderground v.1.15,2013-10-07 12:10:00,
2013-10-07 07:12:00,45.1,43.2,29.92,West,267,0.0,0.0,93,0.00,,,0.01,5,Wunderground v.1.15,2013-10-07 12:12:00,
2013-10-07 07:13:00,45.1,43.2,29.92,West,267,0.0,0.0,93,0.00,,,0.01,5,Wunderground v.1.15,2013-10-07 12:13:00,
2013-10-07 07:17:00,45.1,43.2,29.92,West,267,0.0,0.0,93,0.00,,,0.01,7,Wunderground v.1.15,2013-10-07 12:17:00,
2013-10-07 07:18:00,45.1,43.2,29.92,West,267,0.0,0.0,93,0.00,,,0.01,7,Wunderground v.1.15,2013-10-07 12:18:00,
2013-10-07 07:19:00,45.1,43.2,29.92,West,267,0.0,0.0,93,0.00,,,0.01,7,Wunderground v.1.15,2013-10-07 12:19:00,
2013-10-07 07:21:00,45.1,43.2,29.92,West,267,0.0,0.0,93,0.00,,,0.01,9,Wunderground v.1.15,2013-10-07 12:21:00,
2013-10-07 07:22:00,45.1,43.2,29.92,West,267,0.0,0.0,93,0.00,,,0.01,9,Wunderground v.1.15,2013-10-07 12:22:00,
2013-10-07 07:24:00,45.1,43.5,29.92,West,267,0.0,0.0,94,0.00,,,0.01,11,Wunderground v.1.15,2013-10-07 12:24:00,
2013-10-07 07:28:00,45.1,43.2,29.92,West,267,0.0,0.0,93,0.00,,,0.01,14,Wunderground v.1.15,2013-10-07 12:28:00,
2013-10-07 07:29:00,45.1,43.2,29.92,West,267,0.0,0.0,93,0.00,,,0.01,16,Wunderground v.1.15,2013-10-07 12:29:00,
2013-10-07 07:30:00,45.1,43.2,29.92,West,267,0.0,0.0,93,0.00,,,0.01,18,Wunderground v.1.15,2013-10-07 12:30:00,
2013-10-07 07:31:00,45.1,43.2,29.92,West,267,0.0,0.0,93,0.00,,,0.01,16,Wunderground v.1.15,2013-10-07 12:31:00,
2013-10-07 07:32:00,45.1,43.2,29.92,West,267,0.0,0.0,93,0.00,,,0.01,18,Wunderground v.1.15,2013-10-07 12:32:00,
2013-10-07 07:35:00,45.1,43.5,29.92,West,267,0.0,0.0,94,0.00,,,0.01,19,Wunderground v.1.15,2013-10-07 12:35:00,
2013-10-07 07:37:00,45.1,43.5,29.92,West,267,0.0,0.0,94,0.00,,,0.01,21,Wunderground v.1.15,2013-10-07 12:37:00,
2013-10-07 07:40:00,45.2,43.6,29.92,West,267,0.0,0.0,94,0.00,,,0.01,16,Wunderground v.1.15,2013-10-07 12:40:00,
2013-10-07 07:41:00,45.2,43.6,29.92,West,267,0.0,0.0,94,0.00,,,0.01,19,Wunderground v.1.15,2013-10-07 12:41:00,
2013-10-07 07:44:00,45.2,43.6,29.93,West,267,0.0,0.0,94,0.00,,,0.01,18,Wunderground v.1.15,2013-10-07 12:44:00,
2013-10-07 07:45:00,45.2,43.6,29.92,West,267,0.0,0.0,94,0.00,,,0.01,23,Wunderground v.1.15,2013-10-07 12:45:00,
2013-10-07 07:47:00,45.3,43.7,29.93,West,267,0.0,0.0,94,0.00,,,0.01,32,Wunderground v.1.15,2013-10-07 12:47:00,
2013-10-07 07:48:00,45.3,43.7,29.93,West,267,0.0,0.0,94,0.00,,,0.01,28,Wunderground v.1.15,2013-10-07 12:48:00,
2013-10-07 07:50:00,45.4,43.8,29.93,West,267,0.0,0.0,94,0.00,,,0.01,26,Wunderground v.1.15,2013-10-07 12:50:00,
2013-10-07 07:53:00,45.4,43.8,29.93,West,267,0.0,0.0,94,0.00,,,0.01,37,Wunderground v.1.15,2013-10-07 12:53:00,
2013-10-07 07:55:00,45.4,43.8,29.93,West,267,0.0,0.0,94,0.00,,,0.01,40,Wunderground v.1.15,2013-10-07 12:55:00,
2013-10-07 07:56:00,45.5,43.9,29.93,West,267,0.0,0.0,94,0.00,,,0.01,53,Wunderground v.1.15,2013-10-07 12:56:00,
2013-10-07 07:57:00,45.5,43.9,29.93,West,267,0.0,0.0,94,0.00,,,0.01,42,Wunderground v.1.15,2013-10-07 12:57:00,
2013-10-07 07:59:00,45.5,43.9,29.93,West,267,0.0,0.0,94,0.00,,,0.01,49,Wunderground v.1.15,2013-10-07 12:59:00,
2013-10-07 08:00:00,45.5,43.9,29.94,West,267,0.0,0.0,94,0.00,,,0.01,58,Wunderground v.1.15,2013-10-07 13:00:00,
2013-10-07 08:01:00,45.6,44.0,29.94,West,267,0.0,0.0,94,0.00,,,0.01,47,Wunderground v.1.15,2013-10-07 13:01:00,
2013-10-07 08:05:00,45.6,44.0,29.94,West,267,0.0,0.0,94,0.00,,,0.01,60,Wunderground v.1.15,2013-10-07 13:05:00,
2013-10-07 08:06:00,45.7,44.1,29.94,West,267,0.0,0.0,94,0.00,,,0.01,62,Wunderground v.1.15,2013-10-07 13:06:00,
2013-10-07 08:07:00,45.7,44.1,29.94,West,267,0.0,0.0,94,0.00,,,0.01,62,Wunderground v.1.15,2013-10-07 13:07:00,
2013-10-07 08:08:00,45.7,44.1,29.94,West,267,0.0,0.0,94,0.00,,,0.01,67,Wunderground v.1.15,2013-10-07 13:08:00,
2013-10-07 08:10:00,45.8,44.2,29.94,West,267,0.0,1.0,94,0.00,,,0.01,86,Wunderground v.1.15,2013-10-07 13:10:00,
2013-10-07 08:12:00,45.8,44.2,29.94,West,267,0.0,1.0,94,0.00,,,0.01,84,Wunderground v.1.15,2013-10-07 13:12:00,
2013-10-07 08:13:00,45.8,44.2,29.94,West,267,0.0,1.0,94,0.00,,,0.01,63,Wunderground v.1.15,2013-10-07 13:13:00,
2013-10-07 08:14:00,45.9,44.3,29.94,West,267,0.0,1.0,94,0.00,,,0.01,63,Wunderground v.1.15,2013-10-07 13:14:00,
2013-10-07 08:17:00,46.0,44.4,29.94,West,267,0.0,1.0,94,0.00,,,0.01,104,Wunderground v.1.15,2013-10-07 13:17:00,
2013-10-07 08:18:00,46.0,44.4,29.94,West,267,0.0,1.0,94,0.00,,,0.01,98,Wunderground v.1.15,2013-10-07 13:18:00,
2013-10-07 08:19:00,46.1,44.5,29.94,West,267,0.0,1.0,94,0.00,,,0.01,98,Wunderground v.1.15,2013-10-07 13:19:00,
2013-10-07 08:23:00,46.3,44.7,29.94,West,267,0.0,0.0,94,0.00,,,0.01,113,Wunderground v.1.15,2013-10-07 13:23:00,
2013-10-07 08:24:00,46.3,44.9,29.94,West,267,0.0,0.0,95,0.00,,,0.01,127,Wunderground v.1.15,2013-10-07 13:24:00,
2013-10-07 08:25:00,46.3,44.9,29.95,West,267,0.0,0.0,95,0.00,,,0.01,190,Wunderground v.1.15,2013-10-07 13:25:00,
2013-10-07 08:26:00,46.4,44.8,29.95,West,266,0.0,3.0,94,0.00,,,0.01,84,Wunderground v.1.15,2013-10-07 13:26:00,
2013-10-07 08:29:00,46.5,44.9,29.95,West,266,1.0,3.0,94,0.00,,,0.01,91,Wunderground v.1.15,2013-10-07 13:29:00,
2013-10-07 08:30:00,46.5,44.9,29.95,West,266,1.0,1.0,94,0.00,,,0.01,123,Wunderground v.1.15,2013-10-07 13:30:00,
2013-10-07 08:31:00,46.5,44.9,29.95,West,266,1.0,1.0,94,0.00,,,0.01,93,Wunderground v.1.15,2013-10-07 13:31:00,
2013-10-07 08:32:00,46.5,44.9,29.95,West,266,1.0,1.0,94,0.00,,,0.01,116,Wunderground v.1.15,2013-10-07 13:32:00,
2013-10-07 08:35:00,46.6,45.0,29.95,West,266,1.0,1.0,94,0.00,,,0.01,209,Wunderground v.1.15,2013-10-07 13:35:00,
2013-10-07 08:37:00,46.7,45.1,29.95,West,266,0.0,1.0,94,0.00,,,0.01,97,Wunderground v.1.15,2013-10-07 13:37:00,
2013-10-07 08:38:00,46.7,45.1,29.95,West,266,0.0,1.0,94,0.00,,,0.01,105,Wunderground v.1.15,2013-10-07 13:38:00,
2013-10-07 08:39:00,46.8,45.2,29.95,West,266,0.0,1.0,94,0.00,,,0.01,244,Wunderground v.1.15,2013-10-07 13:39:00,
2013-10-07 08:40:00,46.8,45.2,29.95,West,266,0.0,0.0,94,0.00,,,0.01,207,Wunderground v.1.15,2013-10-07 13:40:00,
2013-10-07 08:42:00,46.9,45.3,29.95,West,266,0.0,1.0,94,0.00,,,0.01,158,Wunderground v.1.15,2013-10-07 13:42:00,
2013-10-07 08:44:00,47.0,45.4,29.95,West,266,0.0,1.0,94,0.00,,,0.01,239,Wunderground v.1.15,2013-10-07 13:44:00,
2013-10-07 08:45:00,47.0,45.4,29.95,West,266,0.0,1.0,94,0.00,,,0.01,251,Wunderground v.1.15,2013-10-07 13:45:00,
2013-10-07 08:46:00,47.1,45.5,29.95,West,266,0.0,1.0,94,0.00,,,0.01,251,Wunderground v.1.15,2013-10-07 13:46:00,
2013-10-07 08:47:00,47.1,45.5,29.95,West,266,0.0,1.0,94,0.00,,,0.01,251,Wunderground v.1.15,2013-10-07 13:47:00,
2013-10-07 08:49:00,47.2,45.6,29.95,West,266,0.0,1.0,94,0.00,,,0.01,160,Wunderground v.1.15,2013-10-07 13:49:00,
2013-10-07 08:51:00,47.3,45.7,29.95,West,266,0.0,0.0,94,0.00,,,0.01,292,Wunderground v.1.15,2013-10-07 13:51:00,
2013-10-07 08:52:00,47.3,45.7,29.95,West,266,0.0,0.0,94,0.00,,,0.01,276,Wunderground v.1.15,2013-10-07 13:52:00,
2013-10-07 08:54:00,47.4,45.8,29.95,West,266,0.0,0.0,94,0.00,,,0.01,91,Wunderground v.1.15,2013-10-07 13:54:00,
2013-10-07 08:55:00,47.5,45.9,29.95,West,266,0.0,0.0,94,0.00,,,0.01,255,Wunderground v.1.15,2013-10-07 13:55:00,
2013-10-07 08:59:00,47.9,46.3,29.95,West,266,0.0,0.0,94,0.00,,,0.01,269,Wunderground v.1.15,2013-10-07 13:59:00,
2013-10-07 09:00:00,47.9,46.3,29.95,West,266,0.0,0.0,94,0.00,,,0.01,299,Wunderground v.1.15,2013-10-07 14:00:00,
2013-10-07 09:02:00,48.1,46.5,29.95,West,266,0.0,1.0,94,0.00,,,0.01,202,Wunderground v.1.15,2013-10-07 14:02:00,
2013-10-07 09:04:00,48.1,46.5,29.95,West,266,0.0,1.0,94,0.00,,,0.01,202,Wunderground v.1.15,2013-10-07 14:04:00,
2013-10-07 09:05:00,48.2,46.6,29.95,West,266,0.0,1.0,94,0.00,,,0.01,301,Wunderground v.1.15,2013-10-07 14:05:00,
2013-10-07 09:07:00,48.3,46.7,29.95,West,266,0.0,1.0,94,0.00,,,0.01,304,Wunderground v.1.15,2013-10-07 14:07:00,
2013-10-07 09:08:00,48.4,46.8,29.95,West,266,0.0,1.0,94,0.00,,,0.01,302,Wunderground v.1.15,2013-10-07 14:08:00,
2013-10-07 09:10:00,48.5,46.9,29.96,West,266,0.0,0.0,94,0.00,,,0.01,308,Wunderground v.1.15,2013-10-07 14:10:00,
2013-10-07 09:11:00,48.6,47.0,29.95,West,266,0.0,0.0,94,0.00,,,0.01,308,Wunderground v.1.15,2013-10-07 14:11:00,
2013-10-07 09:13:00,48.8,47.2,29.95,West,266,0.0,1.0,94,0.00,,,0.01,322,Wunderground v.1.15,2013-10-07 14:13:00,
2013-10-07 09:15:00,48.9,47.0,29.95,West,266,0.0,1.0,93,0.00,,,0.01,325,Wunderground v.1.15,2013-10-07 14:15:00,
2013-10-07 09:16:00,49.0,47.1,29.95,West,266,0.0,1.0,93,0.00,,,0.01,329,Wunderground v.1.15,2013-10-07 14:16:00,
2013-10-07 09:20:00,49.4,47.5,29.96,West,266,0.0,0.0,93,0.00,,,0.01,338,Wunderground v.1.15,2013-10-07 14:20:00,
2013-10-07 09:22:00,49.6,47.7,29.95,West,266,1.0,3.0,93,0.00,,,0.01,341,Wunderground v.1.15,2013-10-07 14:22:00,
2013-10-07 09:23:00,49.7,47.8,29.95,West,266,1.0,3.0,93,0.00,,,0.01,346,Wunderground v.1.15,2013-10-07 14:23:00,
2013-10-07 09:24:00,49.7,47.5,29.96,West,266,1.0,3.0,92,0.00,,,0.01,346,Wunderground v.1.15,2013-10-07 14:24:00,
2013-10-07 09:26:00,49.9,47.7,29.96,West,264,1.0,3.0,92,0.00,,,0.01,355,Wunderground v.1.15,2013-10-07 14:26:00,
2013-10-07 09:30:00,50.3,48.1,29.96,West,264,1.0,1.0,92,0.00,,,0.01,364,Wunderground v.1.15,2013-10-07 14:30:00,
2013-10-07 09:31:00,50.4,48.2,29.96,West,264,1.0,3.0,92,0.00,,,0.01,371,Wunderground v.1.15,2013-10-07 14:31:00,
2013-10-07 09:34:00,50.7,48.2,29.96,WSW,244,2.0,6.0,91,0.00,,,0.01,385,Wunderground v.1.15,2013-10-07 14:34:00,
2013-10-07 09:36:00,50.8,48.0,29.96,WSW,238,2.0,6.0,90,0.00,,,0.01,390,Wunderground v.1.15,2013-10-07 14:36:00,
2013-10-07 09:37:00,50.9,48.1,29.96,SW,236,2.0,6.0,90,0.00,,,0.01,390,Wunderground v.1.15,2013-10-07 14:37:00,
2013-10-07 09:40:00,51.3,48.5,29.96,SW,235,2.0,3.0,90,0.00,,,0.01,397,Wunderground v.1.15,2013-10-07 14:40:00,
2013-10-07 09:41:00,51.4,48.3,29.96,SW,223,3.0,6.0,89,0.00,,,0.01,397,Wunderground v.1.15,2013-10-07 14:41:00,
2013-10-07 09:45:00,51.8,48.7,29.96,SW,234,2.0,6.0,89,0.00,,,0.01,408,Wunderground v.1.15,2013-10-07 14:45:00,
2013-10-07 09:46:00,51.9,48.5,29.96,SW,227,3.0,6.0,88,0.00,,,0.01,406,Wunderground v.1.15,2013-10-07 14:46:00,
2013-10-07 09:47:00,52.0,48.3,29.96,SW,227,3.0,6.0,87,0.00,,,0.01,406,Wunderground v.1.15,2013-10-07 14:47:00,
2013-10-07 09:48:00,52.1,48.3,29.96,SW,227,2.0,6.0,87,0.00,,,0.01,408,Wunderground v.1.15,2013-10-07 14:48:00,
2013-10-07 09:49:00,52.1,48.3,29.96,SW,227,2.0,6.0,87,0.00,,,0.01,413,Wunderground v.1.15,2013-10-07 14:49:00,
2013-10-07 09:51:00,52.4,48.6,29.96,SW,227,2.0,2.0,87,0.00,,,0.01,418,Wunderground v.1.15,2013-10-07 14:51:00,
2013-10-07 09:52:00,52.4,48.3,29.96,SW,232,2.0,2.0,86,0.00,,,0.01,417,Wunderground v.1.15,2013-10-07 14:52:00,
2013-10-07 09:56:00,52.8,48.4,29.96,SW,231,3.0,5.0,85,0.00,,,0.01,431,Wunderground v.1.15,2013-10-07 14:56:00,
2013-10-07 09:57:00,52.9,48.2,29.97,WSW,238,3.0,5.0,84,0.00,,,0.01,432,Wunderground v.1.15,2013-10-07 14:57:00,
2013-10-07 10:00:00,53.1,48.4,29.97,SW,225,3.0,5.0,84,0.00,,,0.01,439,Wunderground v.1.15,2013-10-07 15:00:00,
2013-10-07 10:01:00,53.2,48.2,29.97,WSW,238,4.0,5.0,83,0.00,,,0.01,441,Wunderground v.1.15,2013-10-07 15:01:00,
2013-10-07 10:03:00,53.3,47.9,29.97,SW,236,4.0,5.0,82,0.00,,,0.01,446,Wunderground v.1.15,2013-10-07 15:03:00,
2013-10-07 10:04:00,53.3,47.9,29.97,WSW,237,3.0,5.0,82,0.00,,,0.01,450,Wunderground v.1.15,2013-10-07 15:04:00,
2013-10-07 10:05:00,53.4,48.0,29.97,WSW,239,3.0,5.0,82,0.00,,,0.01,454,Wunderground v.1.15,2013-10-07 15:05:00,
2013-10-07 10:08:00,53.7,48.0,29.97,SW,231,2.0,5.0,81,0.00,,,0.01,461,Wunderground v.1.15,2013-10-07 15:08:00,
2013-10-07 10:09:00,53.8,48.1,29.97,SW,236,3.0,5.0,81,0.00,,,0.01,462,Wunderground v.1.15,2013-10-07 15:09:00,
2013-10-07 10:11:00,53.9,48.2,29.97,SW,230,3.0,3.0,81,0.00,,,0.01,468,Wunderground v.1.15,2013-10-07 15:11:00,
2013-10-07 10:13:00,54.1,48.1,29.97,WSW,237,3.0,4.0,80,0.00,,,0.01,473,Wunderground v.1.15,2013-10-07 15:13:00,
2013-10-07 10:16:00,54.2,47.8,29.97,WSW,238,4.0,4.0,79,0.00,,,0.01,478,Wunderground v.1.15,2013-10-07 15:16:00,
2013-10-07 10:18:00,54.3,47.6,29.97,SW,229,4.0,5.0,78,0.00,,,0.01,482,Wunderground v.1.15,2013-10-07 15:18:00,
2013-10-07 10:19:00,54.3,47.6,29.97,SW,236,4.0,5.0,78,0.00,,,0.01,483,Wunderground v.1.15,2013-10-07 15:19:00,
2013-10-07 10:20:00,54.4,47.7,29.97,SW,234,4.0,6.0,78,0.00,,,0.01,487,Wunderground v.1.15,2013-10-07 15:20:00,
2013-10-07 10:21:00,54.4,47.7,29.97,SW,223,4.0,6.0,78,0.00,,,0.01,489,Wunderground v.1.15,2013-10-07 15:21:00,
2013-10-07 10:23:00,54.6,47.9,29.97,SW,221,4.0,6.0,78,0.00,,,0.01,494,Wunderground v.1.15,2013-10-07 15:23:00,
2013-10-07 10:24:00,54.6,47.9,29.97,SW,221,4.0,6.0,78,0.00,,,0.01,497,Wunderground v.1.15,2013-10-07 15:24:00,
2013-10-07 10:25:00,54.7,48.0,29.97,SW,215,4.0,8.0,78,0.00,,,0.01,497,Wunderground v.1.15,2013-10-07 15:25:00,
2013-10-07 10:28:00,54.8,47.7,29.97,SW,222,4.0,8.0,77,0.00,,,0.01,504,Wunderground v.1.15,2013-10-07 15:28:00,
2013-10-07 10:29:00,54.9,47.8,29.97,SW,222,4.0,8.0,77,0.00,,,0.01,504,Wunderground v.1.15,2013-10-07 15:29:00,
2013-10-07 10:31:00,55.0,47.9,29.97,SW,219,4.0,4.0,77,0.00,,,0.01,510,Wunderground v.1.15,2013-10-07 15:31:00,
2013-10-07 10:33:00,55.2,48.1,29.97,SW,218,4.0,5.0,77,0.00,,,0.01,513,Wunderground v.1.15,2013-10-07 15:33:00,
2013-10-07 10:36:00,55.5,48.4,29.97,SW,219,3.0,6.0,77,0.00,,,0.01,519,Wunderground v.1.15,2013-10-07 15:36:00,
2013-10-07 10:37:00,55.6,48.5,29.97,SW,219,3.0,6.0,77,0.00,,,0.01,520,Wunderground v.1.15,2013-10-07 15:37:00,
2013-10-07 10:38:00,55.7,48.2,29.97,SW,219,3.0,6.0,76,0.00,,,0.01,520,Wunderground v.1.15,2013-10-07 15:38:00,
2013-10-07 10:39:00,55.7,48.2,29.97,SW,221,4.0,6.0,76,0.00,,,0.01,524,Wunderground v.1.15,2013-10-07 15:39:00,
2013-10-07 10:43:00,56.1,48.3,29.98,SW,221,3.0,3.0,75,0.00,,,0.01,531,Wunderground v.1.15,2013-10-07 15:43:00,
2013-10-07 10:44:00,56.1,48.3,29.98,SW,221,4.0,4.0,75,0.00,,,0.01,533,Wunderground v.1.15,2013-10-07 15:44:00,
2013-10-07 10:46:00,56.3,48.5,29.97,SW,221,3.0,4.0,75,0.00,,,0.01,538,Wunderground v.1.15,2013-10-07 15:46:00,
2013-10-07 10:47:00,56.4,48.6,29.98,SW,220,3.0,4.0,75,0.00,,,0.01,538,Wunderground v.1.15,2013-10-07 15:47:00,
2013-10-07 10:48:00,56.6,48.4,29.98,SW,221,3.0,4.0,74,0.00,,,0.01,541,Wunderground v.1.15,2013-10-07 15:48:00,
2013-10-07 10:50:00,56.6,48.0,29.98,SW,221,3.0,3.0,73,0.00,,,0.01,545,Wunderground v.1.15,2013-10-07 15:50:00,
2013-10-07 10:54:00,56.8,48.6,29.97,SW,221,2.0,3.0,74,0.00,,,0.01,554,Wunderground v.1.15,2013-10-07 15:54:00,
2013-10-07 10:56:00,57.1,48.9,29.97,SW,219,2.0,3.0,74,0.00,,,0.01,557,Wunderground v.1.15,2013-10-07 15:56:00,
2013-10-07 10:57:00,57.4,49.2,29.98,SW,219,2.0,3.0,74,0.00,,,0.01,557,Wunderground v.1.15,2013-10-07 15:57:00,
2013-10-07 10:59:00,57.6,49.4,29.98,WSW,238,2.0,7.0,74,0.00,,,0.01,559,Wunderground v.1.15,2013-10-07 15:59:00,
2013-10-07 11:01:00,57.8,49.2,29.98,SW,234,3.0,4.0,73,0.00,,,0.01,564,Wunderground v.1.15,2013-10-07 16:01:00,
2013-10-07 11:02:00,57.8,48.8,29.98,SW,234,3.0,4.0,72,0.00,,,0.01,564,Wunderground v.1.15,2013-10-07 16:02:00,
2013-10-07 11:04:00,57.7,48.4,29.98,SW,234,3.0,4.0,71,0.00,,,0.01,568,Wunderground v.1.15,2013-10-07 16:04:00,
2013-10-07 11:06:00,58.0,49.4,29.98,SW,234,3.0,4.0,73,0.00,,,0.01,573,Wunderground v.1.15,2013-10-07 16:06:00,
2013-10-07 11:07:00,58.1,49.1,29.98,SW,234,3.0,4.0,72,0.00,,,0.01,575,Wunderground v.1.15,2013-10-07 16:07:00,
2013-10-07 11:09:00,58.2,48.8,29.98,SW,225,3.0,4.0,71,0.00,,,0.01,577,Wunderground v.1.15,2013-10-07 16:09:00,
2013-10-07 11:10:00,58.3,48.9,29.98,SW,225,2.0,2.0,71,0.00,,,0.01,578,Wunderground v.1.15,2013-10-07 16:10:00,
2013-10-07 11:14:00,58.9,49.5,29.98,SW,225,2.0,2.0,71,0.00,,,0.01,584,Wunderground v.1.15,2013-10-07 16:14:00,
2013-10-07 11:15:00,59.1,49.7,29.98,SW,225,2.0,2.0,71,0.00,,,0.01,585,Wunderground v.1.15,2013-10-07 16:15:00,
2013-10-07 11:16:00,59.3,49.9,29.98,SW,225,2.0,2.0,71,0.00,,,0.01,587,Wunderground v.1.15,2013-10-07 16:16:00,
2013-10-07 11:18:00,59.5,49.3,29.98,SW,225,2.0,5.0,69,0.00,,,0.01,589,Wunderground v.1.15,2013-10-07 16:18:00,
2013-10-07 11:19:00,59.5,48.9,29.98,SW,225,1.0,5.0,68,0.00,,,0.01,591,Wunderground v.1.15,2013-10-07 16:19:00,
2013-10-07 11:21:00,59.6,49.4,29.98,SW,228,2.0,5.0,69,0.00,,,0.01,591,Wunderground v.1.15,2013-10-07 16:21:00,
2013-10-07 11:24:00,59.8,49.2,29.98,SW,227,2.0,5.0,68,0.00,,,0.01,598,Wunderground v.1.15,2013-10-07 16:24:00,
2013-10-07 11:25:00,59.7,49.1,29.98,SW,228,3.0,5.0,68,0.00,,,0.01,598,Wunderground v.1.15,2013-10-07 16:25:00,
2013-10-07 11:26:00,59.8,49.2,29.98,SW,231,3.0,5.0,68,0.00,,,0.01,598,Wunderground v.1.15,2013-10-07 16:26:00,
2013-10-07 11:27:00,59.9,49.3,29.98,SW,231,3.0,5.0,68,0.00,,,0.01,599,Wunderground v.1.15,2013-10-07 16:27:00,
2013-10-07 11:29:00,60.0,49.4,29.98,WSW,242,3.0,6.0,68,0.00,,,0.01,603,Wunderground v.1.15,2013-10-07 16:29:00,
2013-10-07 11:32:00,60.2,49.6,29.98,SW,229,3.0,3.0,68,0.00,,,0.01,606,Wunderground v.1.15,2013-10-07 16:32:00,
2013-10-07 11:33:00,60.4,49.8,29.98,SW,231,2.0,4.0,68,0.00,,,0.01,608,Wunderground v.1.15,2013-10-07 16:33:00,
2013-10-07 11:34:00,60.5,49.9,29.98,SW,234,2.0,4.0,68,0.00,,,0.01,610,Wunderground v.1.15,2013-10-07 16:34:00,
2013-10-07 11:36:00,60.7,49.3,29.98,SW,234,2.0,4.0,66,0.00,,,0.01,612,Wunderground v.1.15,2013-10-07 16:36:00,
2013-10-07 11:39:00,60.9,49.1,29.98,SW,234,1.0,4.0,65,0.00,,,0.01,615,Wunderground v.1.15,2013-10-07 16:39:00,
2013-10-07 11:41:00,61.0,49.1,29.98,SW,228,1.0,5.0,65,0.00,,,0.01,617,Wunderground v.1.15,2013-10-07 16:41:00,
2013-10-07 11:45:00,61.2,48.9,29.98,SW,227,2.0,5.0,64,0.00,,,0.01,621,Wunderground v.1.15,2013-10-07 16:45:00,
2013-10-07 11:46:00,61.2,48.9,29.98,SW,235,2.0,5.0,64,0.00,,,0.01,621,Wunderground v.1.15,2013-10-07 16:46:00,
2013-10-07 11:48:00,61.2,48.9,29.98,SW,235,2.0,5.0,64,0.00,,,0.01,626,Wunderground v.1.15,2013-10-07 16:48:00,
2013-10-07 11:52:00,61.2,49.3,29.99,SSE,156,3.0,3.0,65,0.00,,,0.01,628,Wunderground v.1.15,2013-10-07 16:52:00,
2013-10-07 11:54:00,61.3,50.2,29.98,SSE,160,3.0,4.0,67,0.00,,,0.01,628,Wunderground v.1.15,2013-10-07 16:54:00,
2013-10-07 11:55:00,61.5,50.0,29.98,West,269,3.0,4.0,66,0.00,,,0.01,629,Wunderground v.1.15,2013-10-07 16:55:00,
2013-10-07 11:56:00,61.6,49.7,29.98,SW,220,2.0,4.0,65,0.00,,,0.01,629,Wunderground v.1.15,2013-10-07 16:56:00,
2013-10-07 11:59:00,62.2,50.3,29.99,SW,236,2.0,4.0,65,0.00,,,0.01,631,Wunderground v.1.15,2013-10-07 16:59:00,
2013-10-07 12:00:00,62.2,49.4,29.98,SW,234,3.0,3.0,63,0.00,,,0.01,631,Wunderground v.1.15,2013-10-07 17:00:00,
2013-10-07 12:01:00,62.3,49.5,29.99,SW,234,3.0,3.0,63,0.00,,,0.01,633,Wunderground v.1.15,2013-10-07 17:01:00,
2013-10-07 12:02:00,62.3,49.1,29.99,SW,234,2.0,3.0,62,0.00,,,0.01,635,Wunderground v.1.15,2013-10-07 17:02:00,
2013-10-07 12:05:00,62.6,49.4,29.99,SW,232,2.0,4.0,62,0.00,,,0.01,636,Wunderground v.1.15,2013-10-07 17:05:00,
2013-10-07 12:06:00,62.7,49.1,29.99,SSW,211,3.0,4.0,61,0.00,,,0.01,636,Wunderground v.1.15,2013-10-07 17:06:00,
2013-10-07 12:10:00,62.8,49.1,29.99,SSW,211,3.0,7.0,61,0.00,,,0.01,642,Wunderground v.1.15,2013-10-07 17:10:00,
2013-10-07 12:11:00,62.8,49.1,29.99,SW,235,4.0,7.0,61,0.00,,,0.01,642,Wunderground v.1.15,2013-10-07 17:11:00,
2013-10-07 12:14:00,62.6,49.0,29.99,SW,217,5.0,10.0,61,0.00,,,0.01,645,Wunderground v.1.15,2013-10-07 17:14:00,
2013-10-07 12:15:00,62.5,48.9,29.99,SW,227,5.0,10.0,61,0.00,,,0.01,645,Wunderground v.1.15,2013-10-07 17:15:00,
2013-10-07 12:16:00,62.4,48.8,29.99,SW,218,5.0,10.0,61,0.00,,,0.01,643,Wunderground v.1.15,2013-10-07 17:16:00,
2013-10-07 12:17:00,62.3,48.7,29.99,SW,215,5.0,10.0,61,0.00,,,0.01,643,Wunderground v.1.15,2013-10-07 17:17:00,
2013-10-07 12:18:00,62.3,49.1,29.99,SW,215,5.0,10.0,62,0.00,,,0.01,643,Wunderground v.1.15,2013-10-07 17:18:00,
2013-10-07 12:19:00,62.3,49.1,29.99,SSW,206,5.0,10.0,62,0.00,,,0.01,643,Wunderground v.1.15,2013-10-07 17:19:00,
2013-10-07 12:22:00,62.5,49.3,29.99,WSW,239,4.0,7.0,62,0.00,,,0.01,649,Wunderground v.1.15,2013-10-07 17:22:00,
2013-10-07 12:23:00,62.5,48.9,29.99,SSW,206,4.0,7.0,61,0.00,,,0.01,649,Wunderground v.1.15,2013-10-07 17:23:00,
2013-10-07 12:25:00,62.5,48.9,29.99,SSW,201,4.0,7.0,61,0.00,,,0.01,649,Wunderground v.1.15,2013-10-07 17:25:00,
2013-10-07 12:27:00,62.5,48.9,29.99,SSW,201,3.0,7.0,61,0.00,,,0.01,652,Wunderground v.1.15,2013-10-07 17:27:00,
2013-10-07 12:28:00,62.8,49.6,29.99,WSW,252,3.0,7.0,62,0.00,,,0.01,652,Wunderground v.1.15,2013-10-07 17:28:00,
2013-10-07 12:29:00,62.9,49.7,29.99,SW,217,3.0,7.0,62,0.00,,,0.01,652,Wunderground v.1.15,2013-10-07 17:29:00,
2013-10-07 12:31:00,63.0,48.9,29.99,SSW,212,3.0,5.0,60,0.00,,,0.01,652,Wunderground v.1.15,2013-10-07 17:31:00,
2013-10-07 12:32:00,63.0,48.9,29.99,SW,225,3.0,8.0,60,0.00,,,0.01,650,Wunderground v.1.15,2013-10-07 17:32:00,
2013-10-07 12:34:00,63.0,48.9,29.99,SW,227,4.0,8.0,60,0.00,,,0.01,649,Wunderground v.1.15,2013-10-07 17:34:00,
2013-10-07 12:35:00,62.9,48.3,29.99,SW,221,4.0,8.0,59,0.00,,,0.01,649,Wunderground v.1.15,2013-10-07 17:35:00,
2013-10-07 12:36:00,63.0,48.9,29.99,SW,221,4.0,8.0,60,0.00,,,0.01,650,Wunderground v.1.15,2013-10-07 17:36:00,
2013-10-07 12:38:00,63.2,49.1,29.99,WSW,250,5.0,8.0,60,0.00,,,0.01,654,Wunderground v.1.15,2013-10-07 17:38:00,
2013-10-07 12:39:00,63.2,49.5,29.99,WSW,244,5.0,10.0,61,0.00,,,0.01,656,Wunderground v.1.15,2013-10-07 17:39:00,
2013-10-07 12:41:00,63.1,48.5,29.99,WSW,240,5.0,5.0,59,0.00,,,0.01,654,Wunderground v.1.15,2013-10-07 17:41:00,
2013-10-07 12:43:00,63.2,49.1,29.99,WSW,240,5.0,6.0,60,0.00,,,0.01,668,Wunderground v.1.15,2013-10-07 17:43:00,
2013-10-07 12:44:00,63.3,48.7,29.99,WSW,258,5.0,8.0,59,0.00,,,0.01,666,Wunderground v.1.15,2013-10-07 17:44:00,
2013-10-07 12:45:00,63.2,48.2,29.99,WSW,238,5.0,8.0,58,0.00,,,0.01,661,Wunderground v.1.15,2013-10-07 17:45:00,
2013-10-07 12:47:00,63.2,48.2,29.99,WSW,253,5.0,8.0,58,0.00,,,0.01,657,Wunderground v.1.15,2013-10-07 17:47:00,
2013-10-07 12:48:00,63.3,48.7,29.99,WSW,250,5.0,8.0,59,0.00,,,0.01,652,Wunderground v.1.15,2013-10-07 17:48:00,
2013-10-07 12:49:00,63.3,48.7,29.98,North,349,4.0,8.0,59,0.00,,,0.01,652,Wunderground v.1.15,2013-10-07 17:49:00,
2013-10-07 12:50:00,63.5,48.9,29.99,East,92,4.0,4.0,59,0.00,,,0.01,650,Wunderground v.1.15,2013-10-07 17:50:00,
2013-10-07 12:52:00,63.9,48.4,29.99,WNW,291,3.0,5.0,57,0.00,,,0.01,654,Wunderground v.1.15,2013-10-07 17:52:00,
2013-10-07 12:53:00,63.9,48.4,29.99,WNW,296,3.0,5.0,57,0.00,,,0.01,659,Wunderground v.1.15,2013-10-07 17:53:00,
2013-10-07 12:54:00,63.8,48.3,29.99,West,263,3.0,5.0,57,0.00,,,0.01,664,Wunderground v.1.15,2013-10-07 17:54:00,
2013-10-07 12:55:00,63.9,48.4,29.98,West,262,2.0,5.0,57,0.00,,,0.01,657,Wunderground v.1.15,2013-10-07 17:55:00,
2013-10-07 12:56:00,63.9,48.4,29.99,West,261,2.0,5.0,57,0.00,,,0.01,650,Wunderground v.1.15,2013-10-07 17:56:00,
2013-10-07 12:57:00,64.0,48.9,29.98,West,259,2.0,5.0,58,0.00,,,0.01,654,Wunderground v.1.15,2013-10-07 17:57:00,
2013-10-07 12:59:00,64.0,48.5,29.99,WSW,257,3.0,9.0,57,0.00,,,0.01,659,Wunderground v.1.15,2013-10-07 17:59:00,
2013-10-07 13:00:00,64.0,48.5,29.98,WSW,256,3.0,3.0,57,0.00,,,0.01,668,Wunderground v.1.15,2013-10-07 18:00:00,
2013-10-07 13:02:00,64.2,48.6,29.98,SW,221,4.0,6.0,57,0.00,,,0.01,661,Wunderground v.1.15,2013-10-07 18:02:00,
2013-10-07 13:05:00,64.4,48.8,29.98,SSW,204,4.0,6.0,57,0.00,,,0.01,698,Wunderground v.1.15,2013-10-07 18:05:00,
2013-10-07 13:06:00,64.4,48.4,29.98,SSW,205,4.0,8.0,56,0.00,,,0.01,705,Wunderground v.1.15,2013-10-07 18:06:00,
2013-10-07 13:07:00,64.4,48.4,29.98,SSW,213,4.0,8.0,56,0.00,,,0.01,622,Wunderground v.1.15,2013-10-07 18:07:00,
2013-10-07 13:08:00,64.4,48.8,29.99,SW,215,5.0,8.0,57,0.00,,,0.01,694,Wunderground v.1.15,2013-10-07 18:08:00,
2013-10-07 13:10:00,64.5,48.9,29.98,North,11,4.0,4.0,57,0.00,,,0.01,657,Wunderground v.1.15,2013-10-07 18:10:00,
2013-10-07 13:13:00,64.7,48.6,29.99,NW,313,4.0,5.0,56,0.00,,,0.01,647,Wunderground v.1.15,2013-10-07 18:13:00,
2013-10-07 13:14:00,64.7,46.7,29.99,NW,311,4.0,8.0,52,0.00,,,0.01,649,Wunderground v.1.15,2013-10-07 18:14:00,
2013-10-07 13:16:00,64.6,46.1,29.99,NW,305,4.0,8.0,51,0.00,,,0.01,647,Wunderground v.1.15,2013-10-07 18:16:00,
2013-10-07 13:18:00,64.6,47.6,29.99,NNW,338,3.0,8.0,54,0.00,,,0.01,643,Wunderground v.1.15,2013-10-07 18:18:00,
2013-10-07 13:20:00,64.6,47.1,29.99,NW,323,3.0,7.0,53,0.00,,,0.01,645,Wunderground v.1.15,2013-10-07 18:20:00,
2013-10-07 13:24:00,64.5,47.5,29.99,SW,224,3.0,7.0,54,0.00,,,0.01,643,Wunderground v.1.15,2013-10-07 18:24:00,
2013-10-07 13:25:00,64.6,47.6,29.99,WNW,298,3.0,7.0,54,0.00,,,0.01,642,Wunderground v.1.15,2013-10-07 18:25:00,
2013-10-07 13:26:00,64.8,48.2,29.98,WNW,298,3.0,7.0,55,0.00,,,0.01,640,Wunderground v.1.15,2013-10-07 18:26:00,
2013-10-07 13:29:00,65.2,48.1,29.98,WSW,251,3.0,7.0,54,0.00,,,0.01,643,Wunderground v.1.15,2013-10-07 18:29:00,
2013-10-07 13:30:00,65.5,48.9,29.98,West,268,2.0,3.0,55,0.00,,,0.01,638,Wunderground v.1.15,2013-10-07 18:30:00,
2013-10-07 13:31:00,65.7,49.1,29.98,WSW,240,2.0,4.0,55,0.00,,,0.01,585,Wunderground v.1.15,2013-10-07 18:31:00,
2013-10-07 13:32:00,65.7,48.1,29.98,SW,225,2.0,4.0,53,0.00,,,0.01,638,Wunderground v.1.15,2013-10-07 18:32:00,
2013-10-07 13:33:00,65.8,47.7,29.98,SW,230,2.0,7.0,52,0.00,,,0.01,636,Wunderground v.1.15,2013-10-07 18:33:00,
2013-10-07 13:35:00,65.7,46.0,29.98,SW,228,3.0,7.0,49,0.00,,,0.01,631,Wunderground v.1.15,2013-10-07 18:35:00,
2013-10-07 13:37:00,65.5,46.4,29.98,WNW,283,4.0,7.0,50,0.00,,,0.01,635,Wunderground v.1.15,2013-10-07 18:37:00,
2013-10-07 13:38:00,65.4,46.3,29.98,NW,306,4.0,7.0,50,0.00,,,0.01,635,Wunderground v.1.15,2013-10-07 18:38:00,
2013-10-07 13:40:00,65.3,47.2,29.98,SW,227,4.0,9.0,52,0.00,,,0.01,626,Wunderground v.1.15,2013-10-07 18:40:00,
2013-10-07 13:42:00,65.2,46.6,29.98,West,277,5.0,9.0,51,0.00,,,0.01,629,Wunderground v.1.15,2013-10-07 18:42:00,
2013-10-07 13:44:00,65.2,47.1,29.98,SW,227,4.0,9.0,52,0.00,,,0.01,629,Wunderground v.1.15,2013-10-07 18:44:00,
2013-10-07 13:47:00,65.0,46.4,29.98,SW,217,5.0,9.0,51,0.00,,,0.01,622,Wunderground v.1.15,2013-10-07 18:47:00,
2013-10-07 13:48:00,65.0,46.4,29.98,SW,230,5.0,9.0,51,0.00,,,0.01,619,Wunderground v.1.15,2013-10-07 18:48:00,
2013-10-07 13:49:00,65.0,46.9,29.98,SW,235,5.0,9.0,52,0.00,,,0.01,624,Wunderground v.1.15,2013-10-07 18:49:00,
2013-10-07 13:52:00,64.8,46.8,29.98,SSW,206,5.0,9.0,52,0.00,,,0.01,615,Wunderground v.1.15,2013-10-07 18:52:00,
2013-10-07 13:53:00,64.6,46.1,29.98,SW,217,6.0,9.0,51,0.00,,,0.01,613,Wunderground v.1.15,2013-10-07 18:53:00,
2013-10-07 13:55:00,64.3,45.3,29.98,SSW,212,6.0,9.0,50,0.00,,,0.01,612,Wunderground v.1.15,2013-10-07 18:55:00,
2013-10-07 13:57:00,64.4,46.4,29.98,WSW,244,6.0,9.0,52,0.00,,,0.01,610,Wunderground v.1.15,2013-10-07 18:57:00,
2013-10-07 13:58:00,64.4,45.9,29.98,WSW,238,6.0,9.0,51,0.00,,,0.01,610,Wunderground v.1.15,2013-10-07 18:58:00,
2013-10-07 13:59:00,64.4,46.4,29.98,SW,236,6.0,9.0,52,0.00,,,0.01,610,Wunderground v.1.15,2013-10-07 18:59:00,
2013-10-07 14:01:00,64.4,46.9,29.98,SW,228,6.0,6.0,53,0.00,,,0.01,610,Wunderground v.1.15,2013-10-07 19:01:00,
2013-10-07 14:03:00,64.5,46.5,29.98,WSW,238,5.0,8.0,52,0.00,,,0.01,606,Wunderground v.1.15,2013-10-07 19:03:00,
2013-10-07 14:04:00,64.5,46.5,29.98,SW,219,5.0,9.0,52,0.00,,,0.01,606,Wunderground v.1.15,2013-10-07 19:04:00,
2013-10-07 14:06:00,64.6,47.1,29.98,West,261,5.0,9.0,53,0.00,,,0.01,601,Wunderground v.1.15,2013-10-07 19:06:00,
2013-10-07 14:07:00,64.7,46.7,29.98,NW,325,5.0,9.0,52,0.00,,,0.01,598,Wunderground v.1.15,2013-10-07 19:07:00,
2013-10-07 14:08:00,64.9,47.4,29.98,WNW,291,4.0,9.0,53,0.00,,,0.01,598,Wunderground v.1.15,2013-10-07 19:08:00,
2013-10-07 14:09:00,65.0,47.4,29.98,WSW,257,3.0,9.0,53,0.00,,,0.01,599,Wunderground v.1.15,2013-10-07 19:09:00,
2013-10-07 14:11:00,65.2,47.1,29.98,NW,315,3.0,4.0,52,0.00,,,0.01,596,Wunderground v.1.15,2013-10-07 19:11:00,
2013-10-07 14:13:00,65.3,46.7,29.99,SW,215,3.0,7.0,51,0.00,,,0.01,594,Wunderground v.1.15,2013-10-07 19:13:00,
2013-10-07 14:14:00,65.2,46.1,29.99,NW,317,3.0,7.0,50,0.00,,,0.01,594,Wunderground v.1.15,2013-10-07 19:14:00,
2013-10-07 14:16:00,65.2,46.1,29.99,SW,229,4.0,7.0,50,0.00,,,0.01,591,Wunderground v.1.15,2013-10-07 19:16:00,
2013-10-07 14:17:00,65.3,46.2,29.99,SW,231,4.0,7.0,50,0.00,,,0.01,589,Wunderground v.1.15,2013-10-07 19:17:00,
2013-10-07 14:19:00,65.4,46.3,29.99,West,263,4.0,8.0,50,0.00,,,0.01,591,Wunderground v.1.15,2013-10-07 19:19:00,
2013-10-07 14:21:00,65.4,46.3,29.99,WSW,253,5.0,6.0,50,0.00,,,0.01,585,Wunderground v.1.15,2013-10-07 19:21:00,
2013-10-07 14:23:00,65.4,45.7,29.99,NNW,328,5.0,6.0,49,0.00,,,0.01,578,Wunderground v.1.15,2013-10-07 19:23:00,
2013-10-07 14:25:00,65.3,44.5,29.99,NW,310,5.0,7.0,47,0.00,,,0.01,577,Wunderground v.1.15,2013-10-07 19:25:00,
2013-10-07 14:27:00,65.2,45.0,29.99,South,182,4.0,7.0,48,0.00,,,0.01,571,Wunderground v.1.15,2013-10-07 19:27:00,
2013-10-07 14:28:00,65.3,44.5,29.99,WNW,288,4.0,7.0,47,0.00,,,0.01,568,Wunderground v.1.15,2013-10-07 19:28:00,
2013-10-07 14:29:00,65.3,44.5,29.99,West,274,4.0,7.0,47,0.00,,,0.01,568,Wunderground v.1.15,2013-10-07 19:29:00,
2013-10-07 14:31:00,65.4,44.6,29.99,NW,320,4.0,5.0,47,0.00,,,0.01,561,Wunderground v.1.15,2013-10-07 19:31:00,
2013-10-07 14:33:00,65.7,45.5,29.99,WSW,242,4.0,5.0,48,0.00,,,0.01,561,Wunderground v.1.15,2013-10-07 19:33:00,
2013-10-07 14:34:00,65.7,45.5,29.99,SW,235,3.0,5.0,48,0.00,,,0.01,561,Wunderground v.1.15,2013-10-07 19:34:00,
2013-10-07 14:36:00,66.0,45.7,29.99,SW,216,3.0,5.0,48,0.00,,,0.01,557,Wunderground v.1.15,2013-10-07 19:36:00,
2013-10-07 14:38:00,66.1,45.3,29.99,NNE,15,3.0,5.0,47,0.00,,,0.01,554,Wunderground v.1.15,2013-10-07 19:38:00,
2013-10-07 14:39:00,66.2,45.4,30.00,NW,306,3.0,5.0,47,0.00,,,0.01,552,Wunderground v.1.15,2013-10-07 19:39:00,
2013-10-07 14:42:00,66.4,45.0,29.99,WSW,246,2.0,3.0,46,0.00,,,0.01,548,Wunderground v.1.15,2013-10-07 19:42:00,
2013-10-07 14:44:00,66.5,44.5,29.99,SW,233,3.0,9.0,45,0.00,,,0.01,545,Wunderground v.1.15,2013-10-07 19:44:00,
2013-10-07 14:46:00,66.6,45.2,30.00,WNW,300,3.0,9.0,46,0.00,,,0.01,541,Wunderground v.1.15,2013-10-07 19:46:00,
2013-10-07 14:49:00,66.4,45.0,30.00,SSW,211,3.0,10.0,46,0.00,,,0.01,533,Wunderground v.1.15,2013-10-07 19:49:00,
2013-10-07 14:50:00,66.3,44.9,30.00,West,277,4.0,4.0,46,0.00,,,0.01,531,Wunderground v.1.15,2013-10-07 19:50:00,
2013-10-07 14:55:00,65.8,45.0,30.00,SW,233,5.0,7.0,47,0.00,,,0.01,524,Wunderground v.1.15,2013-10-07 19:55:00,
2013-10-07 14:56:00,65.8,45.0,30.00,WNW,302,5.0,7.0,47,0.00,,,0.01,522,Wunderground v.1.15,2013-10-07 19:56:00,
2013-10-07 14:57:00,65.8,45.0,30.00,WSW,246,5.0,7.0,47,0.00,,,0.01,520,Wunderground v.1.15,2013-10-07 19:57:00,
2013-10-07 14:58:00,65.9,45.1,30.00,SW,221,5.0,7.0,47,0.00,,,0.01,519,Wunderground v.1.15,2013-10-07 19:58:00,
2013-10-07 15:00:00,65.9,45.1,30.00,SSW,196,4.0,4.0,47,0.00,,,0.01,515,Wunderground v.1.15,2013-10-07 20:00:00,
2013-10-07 15:03:00,65.9,45.1,30.00,SW,229,4.0,7.0,47,0.00,,,0.01,506,Wunderground v.1.15,2013-10-07 20:03:00,
2013-10-07 15:04:00,65.9,45.1,30.00,WNW,295,4.0,7.0,47,0.00,,,0.01,506,Wunderground v.1.15,2013-10-07 20:04:00,
2013-10-07 15:06:00,65.8,45.6,30.00,WSW,252,4.0,7.0,48,0.00,,,0.01,504,Wunderground v.1.15,2013-10-07 20:06:00,
2013-10-07 15:08:00,65.8,45.6,30.00,WNW,300,4.0,7.0,48,0.00,,,0.01,501,Wunderground v.1.15,2013-10-07 20:08:00,
2013-10-07 15:10:00,65.8,45.0,30.00,WSW,252,4.0,4.0,47,0.00,,,0.01,499,Wunderground v.1.15,2013-10-07 20:10:00,
2013-10-07 15:11:00,65.9,45.1,30.00,SW,225,4.0,6.0,47,0.00,,,0.01,497,Wunderground v.1.15,2013-10-07 20:11:00,
2013-10-07 15:12:00,65.8,43.9,30.00,SW,236,5.0,6.0,45,0.00,,,0.01,496,Wunderground v.1.15,2013-10-07 20:12:00,
2013-10-07 15:13:00,65.9,44.5,30.00,West,261,4.0,6.0,46,0.00,,,0.01,494,Wunderground v.1.15,2013-10-07 20:13:00,
2013-10-07 15:14:00,65.9,44.5,30.00,WSW,238,4.0,6.0,46,0.00,,,0.01,492,Wunderground v.1.15,2013-10-07 20:14:00,
2013-10-07 15:15:00,66.0,44.6,30.00,WSW,242,4.0,6.0,46,0.00,,,0.01,489,Wunderground v.1.15,2013-10-07 20:15:00,
2013-10-07 15:18:00,66.1,45.3,30.00,West,266,4.0,6.0,47,0.00,,,0.01,476,Wunderground v.1.15,2013-10-07 20:18:00,
2013-10-07 15:19:00,66.1,45.3,30.00,SW,218,4.0,6.0,47,0.00,,,0.01,476,Wunderground v.1.15,2013-10-07 20:19:00,
2013-10-07 15:22:00,66.4,45.0,30.00,SW,218,3.0,4.0,46,0.00,,,0.01,457,Wunderground v.1.15,2013-10-07 20:22:00,
2013-10-07 15:23:00,66.6,45.7,30.00,SW,223,2.0,4.0,47,0.00,,,0.01,436,Wunderground v.1.15,2013-10-07 20:23:00,
2013-10-07 15:24:00,66.6,45.7,30.00,SW,226,2.0,4.0,47,0.00,,,0.01,454,Wunderground v.1.15,2013-10-07 20:24:00,
2013-10-07 15:26:00,66.8,45.3,30.00,WNW,294,2.0,4.0,46,0.00,,,0.01,457,Wunderground v.1.15,2013-10-07 20:26:00,
2013-10-07 15:29:00,67.0,46.1,30.00,WSW,240,2.0,4.0,47,0.00,,,0.01,446,Wunderground v.1.15,2013-10-07 20:29:00,
2013-10-07 15:31:00,67.1,46.2,30.00,SW,221,2.0,4.0,47,0.00,,,0.01,455,Wunderground v.1.15,2013-10-07 20:31:00,
2013-10-07 15:33:00,67.1,45.6,30.00,SW,222,3.0,6.0,46,0.00,,,0.01,446,Wunderground v.1.15,2013-10-07 20:33:00,
2013-10-07 15:35:00,67.1,45.0,30.00,WSW,241,3.0,9.0,45,0.00,,,0.01,446,Wunderground v.1.15,2013-10-07 20:35:00,
2013-10-07 15:36:00,67.0,44.4,30.00,SW,215,4.0,10.0,44,0.00,,,0.01,446,Wunderground v.1.15,2013-10-07 20:36:00,
2013-10-07 15:37:00,66.8,44.2,30.00,SW,223,5.0,10.0,44,0.00,,,0.01,438,Wunderground v.1.15,2013-10-07 20:37:00,
2013-10-07 15:38:00,66.6,44.6,30.00,SW,231,5.0,10.0,45,0.00,,,0.01,434,Wunderground v.1.15,2013-10-07 20:38:00,
2013-10-07 15:40:00,66.3,44.3,30.00,SSW,205,6.0,7.0,45,0.00,,,0.01,438,Wunderground v.1.15,2013-10-07 20:40:00,
2013-10-07 15:41:00,66.3,44.3,30.00,SW,227,6.0,7.0,45,0.00,,,0.01,431,Wunderground v.1.15,2013-10-07 20:41:00,
2013-10-07 15:43:00,66.1,44.1,30.00,WSW,251,6.0,7.0,45,0.00,,,0.01,422,Wunderground v.1.15,2013-10-07 20:43:00,
2013-10-07 15:45:00,66.0,44.6,30.00,WSW,242,6.0,7.0,46,0.00,,,0.01,422,Wunderground v.1.15,2013-10-07 20:45:00,
2013-10-07 15:46:00,65.9,44.5,30.00,WSW,242,5.0,7.0,46,0.00,,,0.01,390,Wunderground v.1.15,2013-10-07 20:46:00,
2013-10-07 15:48:00,65.9,45.1,30.00,SW,217,5.0,7.0,47,0.00,,,0.01,404,Wunderground v.1.15,2013-10-07 20:48:00,
2013-10-07 15:51:00,66.0,45.2,30.00,WSW,244,4.0,4.0,47,0.00,,,0.01,413,Wunderground v.1.15,2013-10-07 20:51:00,
2013-10-07 15:52:00,66.1,45.8,30.00,WSW,241,3.0,4.0,48,0.00,,,0.01,403,Wunderground v.1.15,2013-10-07 20:52:00,
2013-10-07 15:53:00,66.2,45.4,30.00,SW,220,3.0,7.0,47,0.00,,,0.01,392,Wunderground v.1.15,2013-10-07 20:53:00,
2013-10-07 15:54:00,66.2,45.4,30.00,SW,232,3.0,7.0,47,0.00,,,0.01,406,Wunderground v.1.15,2013-10-07 20:54:00,
2013-10-07 15:55:00,66.2,44.8,30.00,South,185,3.0,7.0,46,0.00,,,0.01,403,Wunderground v.1.15,2013-10-07 20:55:00,
2013-10-07 15:57:00,66.1,44.1,30.00,SW,227,4.0,7.0,45,0.00,,,0.01,369,Wunderground v.1.15,2013-10-07 20:57:00,
2013-10-07 16:00:00,65.9,44.5,30.00,SSW,209,5.0,5.0,46,0.00,,,0.01,313,Wunderground v.1.15,2013-10-07 21:00:00,
2013-10-07 16:01:00,65.9,44.5,30.01,SW,228,5.0,5.0,46,0.00,,,0.01,315,Wunderground v.1.15,2013-10-07 21:01:00,
2013-10-07 16:04:00,65.7,44.9,30.00,West,261,6.0,10.0,47,0.00,,,0.01,271,Wunderground v.1.15,2013-10-07 21:04:00,
2013-10-07 16:05:00,65.6,44.8,30.01,SW,228,6.0,10.0,47,0.00,,,0.01,304,Wunderground v.1.15,2013-10-07 21:05:00,
2013-10-07 16:09:00,65.4,44.1,30.01,SW,219,5.0,10.0,46,0.00,,,0.01,320,Wunderground v.1.15,2013-10-07 21:09:00,
2013-10-07 16:10:00,65.4,44.1,30.01,SW,227,5.0,5.0,46,0.00,,,0.01,320,Wunderground v.1.15,2013-10-07 21:10:00,
2013-10-07 16:11:00,65.4,44.1,30.01,SSW,205,5.0,5.0,46,0.00,,,0.01,309,Wunderground v.1.15,2013-10-07 21:11:00,
2013-10-07 16:12:00,65.4,44.1,30.01,SW,222,5.0,5.0,46,0.00,,,0.01,274,Wunderground v.1.15,2013-10-07 21:12:00,
2013-10-07 16:13:00,65.4,43.5,30.01,SW,214,4.0,7.0,45,0.00,,,0.01,301,Wunderground v.1.15,2013-10-07 21:13:00,
2013-10-07 16:14:00,65.4,42.9,30.01,SW,226,4.0,9.0,44,0.00,,,0.01,322,Wunderground v.1.15,2013-10-07 21:14:00,
2013-10-07 16:16:00,65.3,42.8,30.01,SSW,192,4.0,9.0,44,0.00,,,0.01,295,Wunderground v.1.15,2013-10-07 21:16:00,
2013-10-07 16:18:00,65.2,42.1,30.01,SW,236,5.0,9.0,43,0.00,,,0.01,276,Wunderground v.1.15,2013-10-07 21:18:00,
2013-10-07 16:20:00,65.0,42.5,30.01,SSW,208,6.0,8.0,44,0.00,,,0.01,311,Wunderground v.1.15,2013-10-07 21:20:00,
2013-10-07 16:22:00,65.0,43.1,30.01,WSW,252,6.0,8.0,45,0.00,,,0.01,234,Wunderground v.1.15,2013-10-07 21:22:00,
2013-10-07 16:23:00,64.9,43.0,30.01,SSW,213,7.0,8.0,45,0.00,,,0.01,244,Wunderground v.1.15,2013-10-07 21:23:00,
2013-10-07 16:25:00,64.8,42.9,30.01,SW,228,6.0,8.0,45,0.00,,,0.01,290,Wunderground v.1.15,2013-10-07 21:25:00,
2013-10-07 16:26:00,64.8,42.9,30.01,WSW,241,7.0,8.0,45,0.00,,,0.01,283,Wunderground v.1.15,2013-10-07 21:26:00,
2013-10-07 16:28:00,64.7,42.9,30.01,WSW,257,6.0,8.0,45,0.00,,,0.01,287,Wunderground v.1.15,2013-10-07 21:28:00,
2013-10-07 16:31:00,64.7,42.3,30.01,West,272,5.0,6.0,44,0.00,,,0.01,276,Wunderground v.1.15,2013-10-07 21:31:00,
2013-10-07 16:32:00,64.7,42.9,30.01,SW,220,6.0,6.0,45,0.00,,,0.01,281,Wunderground v.1.15,2013-10-07 21:32:00,
2013-10-07 16:33:00,64.7,42.3,30.01,WSW,238,5.0,6.0,44,0.00,,,0.01,278,Wunderground v.1.15,2013-10-07 21:33:00,
2013-10-07 16:35:00,64.7,42.9,30.01,SSW,211,5.0,7.0,45,0.00,,,0.01,262,Wunderground v.1.15,2013-10-07 21:35:00,
2013-10-07 16:36:00,64.7,42.3,30.01,WNW,284,5.0,7.0,44,0.00,,,0.01,246,Wunderground v.1.15,2013-10-07 21:36:00,
2013-10-07 16:37:00,64.8,42.9,30.01,WSW,242,5.0,7.0,45,0.00,,,0.01,258,Wunderground v.1.15,2013-10-07 21:37:00,
2013-10-07 16:41:00,64.7,42.9,30.01,WSW,242,5.0,7.0,45,0.00,,,0.01,237,Wunderground v.1.15,2013-10-07 21:41:00,
2013-10-07 16:42:00,64.7,42.9,30.01,SW,226,5.0,7.0,45,0.00,,,0.01,241,Wunderground v.1.15,2013-10-07 21:42:00,
2013-10-07 16:43:00,64.7,43.4,30.01,SW,227,5.0,7.0,46,0.00,,,0.01,241,Wunderground v.1.15,2013-10-07 21:43:00,
2013-10-07 16:44:00,64.7,42.9,30.02,SW,234,5.0,7.0,45,0.00,,,0.01,241,Wunderground v.1.15,2013-10-07 21:44:00,
2013-10-07 16:46:00,64.7,43.4,30.01,SW,219,5.0,7.0,46,0.00,,,0.01,241,Wunderground v.1.15,2013-10-07 21:46:00,
2013-10-07 16:48:00,64.8,43.5,30.02,SW,225,4.0,7.0,46,0.00,,,0.01,230,Wunderground v.1.15,2013-10-07 21:48:00,
2013-10-07 16:50:00,64.8,42.9,30.01,SW,215,4.0,7.0,45,0.00,,,0.01,227,Wunderground v.1.15,2013-10-07 21:50:00,
2013-10-07 16:51:00,64.8,42.4,30.01,SW,214,4.0,7.0,44,0.00,,,0.01,225,Wunderground v.1.15,2013-10-07 21:51:00,
2013-10-07 16:52:00,64.8,42.4,30.01,SSW,213,4.0,7.0,44,0.00,,,0.01,227,Wunderground v.1.15,2013-10-07 21:52:00,
2013-10-07 16:53:00,64.8,42.4,30.01,SW,232,4.0,7.0,44,0.00,,,0.01,221,Wunderground v.1.15,2013-10-07 21:53:00,
2013-10-07 16:54:00,64.8,42.4,30.01,WSW,240,4.0,7.0,44,0.00,,,0.01,221,Wunderground v.1.15,2013-10-07 21:54:00,
2013-10-07 16:56:00,64.8,41.8,30.01,WSW,243,4.0,7.0,43,0.00,,,0.01,174,Wunderground v.1.15,2013-10-07 21:56:00,
2013-10-07 16:58:00,64.7,41.7,30.01,WSW,240,5.0,7.0,43,0.00,,,0.01,171,Wunderground v.1.15,2013-10-07 21:58:00,
2013-10-07 16:59:00,64.7,41.7,30.02,SW,232,4.0,7.0,43,0.00,,,0.01,156,Wunderground v.1.15,2013-10-07 21:59:00,
2013-10-07 17:00:00,64.7,41.7,30.01,SW,218,4.0,5.0,43,0.00,,,0.01,151,Wunderground v.1.15,2013-10-07 22:00:00,
2013-10-07 17:01:00,64.7,42.3,30.02,SW,236,4.0,5.0,44,0.00,,,0.01,162,Wunderground v.1.15,2013-10-07 22:01:00,
2013-10-07 17:05:00,64.6,42.2,30.02,SW,234,4.0,5.0,44,0.00,,,0.01,172,Wunderground v.1.15,2013-10-07 22:05:00,
2013-10-07 17:07:00,64.5,42.7,30.02,SW,236,3.0,5.0,45,0.00,,,0.01,167,Wunderground v.1.15,2013-10-07 22:07:00,
2013-10-07 17:08:00,64.5,42.7,30.02,SW,236,3.0,5.0,45,0.00,,,0.01,167,Wunderground v.1.15,2013-10-07 22:08:00,
2013-10-07 17:10:00,64.6,43.3,30.02,SW,236,2.0,2.0,46,0.00,,,0.01,160,Wunderground v.1.15,2013-10-07 22:10:00,
2013-10-07 17:11:00,64.7,43.4,30.02,SW,236,2.0,2.0,46,0.00,,,0.01,149,Wunderground v.1.15,2013-10-07 22:11:00,
2013-10-07 17:13:00,64.7,43.4,30.02,SW,236,1.0,2.0,46,0.00,,,0.01,130,Wunderground v.1.15,2013-10-07 22:13:00,
2013-10-07 17:14:00,64.7,42.9,30.02,SW,236,1.0,2.0,45,0.00,,,0.01,127,Wunderground v.1.15,2013-10-07 22:14:00,
2013-10-07 17:15:00,64.8,42.9,30.02,WSW,237,1.0,2.0,45,0.00,,,0.01,125,Wunderground v.1.15,2013-10-07 22:15:00,
2013-10-07 17:17:00,64.7,42.3,30.02,WNW,288,1.0,2.0,44,0.00,,,0.01,141,Wunderground v.1.15,2013-10-07 22:17:00,
2013-10-07 17:19:00,64.7,42.3,30.02,NW,304,1.0,3.0,44,0.00,,,0.01,134,Wunderground v.1.15,2013-10-07 22:19:00,
2013-10-07 17:21:00,64.6,42.2,30.02,WNW,302,2.0,2.0,44,0.00,,,0.01,120,Wunderground v.1.15,2013-10-07 22:21:00,
2013-10-07 17:23:00,64.6,43.9,30.02,WNW,299,2.0,2.0,47,0.00,,,0.01,109,Wunderground v.1.15,2013-10-07 22:23:00,
2013-10-07 17:24:00,64.6,44.5,30.02,WNW,299,2.0,2.0,48,0.00,,,0.01,109,Wunderground v.1.15,2013-10-07 22:24:00,
2013-10-07 17:26:00,64.6,43.9,30.02,WNW,299,1.0,2.0,47,0.00,,,0.01,97,Wunderground v.1.15,2013-10-07 22:26:00,
2013-10-07 17:27:00,64.6,43.9,30.02,WNW,299,1.0,2.0,47,0.00,,,0.01,83,Wunderground v.1.15,2013-10-07 22:27:00,
2013-10-07 17:30:00,64.7,44.5,30.02,WNW,299,0.0,0.0,48,0.00,,,0.01,86,Wunderground v.1.15,2013-10-07 22:30:00,
2013-10-07 17:32:00,64.7,44.5,30.02,WNW,299,0.0,0.0,48,0.00,,,0.01,90,Wunderground v.1.15,2013-10-07 22:32:00,
2013-10-07 17:33:00,64.7,44.5,30.02,WNW,299,0.0,0.0,48,0.00,,,0.01,91,Wunderground v.1.15,2013-10-07 22:33:00,
2013-10-07 17:36:00,64.8,44.6,30.02,WNW,299,0.0,0.0,48,0.00,,,0.01,81,Wunderground v.1.15,2013-10-07 22:36:00,
2013-10-07 17:39:00,64.8,45.2,30.02,WNW,299,0.0,0.0,49,0.00,,,0.01,56,Wunderground v.1.15,2013-10-07 22:39:00,
2013-10-07 17:40:00,64.8,45.2,30.02,WNW,299,0.0,0.0,49,0.00,,,0.01,62,Wunderground v.1.15,2013-10-07 22:40:00,
2013-10-07 17:42:00,64.8,45.7,30.02,WNW,297,0.0,1.0,50,0.00,,,0.01,62,Wunderground v.1.15,2013-10-07 22:42:00,
2013-10-07 17:43:00,64.8,45.2,30.02,WNW,297,0.0,1.0,49,0.00,,,0.01,58,Wunderground v.1.15,2013-10-07 22:43:00,
2013-10-07 17:45:00,64.7,45.1,30.02,WNW,297,0.0,1.0,49,0.00,,,0.01,60,Wunderground v.1.15,2013-10-07 22:45:00,
2013-10-07 17:46:00,64.7,45.1,30.02,WNW,297,0.0,1.0,49,0.00,,,0.01,58,Wunderground v.1.15,2013-10-07 22:46:00,
2013-10-07 17:49:00,64.7,45.6,30.02,WNW,297,0.0,1.0,50,0.00,,,0.01,33,Wunderground v.1.15,2013-10-07 22:49:00,
2013-10-07 17:52:00,64.6,45.5,30.02,WNW,297,0.0,0.0,50,0.00,,,0.01,19,Wunderground v.1.15,2013-10-07 22:52:00,
2013-10-07 17:53:00,64.5,45.4,30.02,WNW,297,0.0,0.0,50,0.00,,,0.01,19,Wunderground v.1.15,2013-10-07 22:53:00,
2013-10-07 17:55:00,64.3,45.3,30.02,WNW,297,0.0,0.0,50,0.00,,,0.01,18,Wunderground v.1.15,2013-10-07 22:55:00,
2013-10-07 17:58:00,63.9,45.9,30.02,WNW,297,0.0,0.0,52,0.00,,,0.01,18,Wunderground v.1.15,2013-10-07 22:58:00,
2013-10-07 17:59:00,63.9,45.9,30.02,WNW,297,0.0,1.0,52,0.00,,,0.01,18,Wunderground v.1.15,2013-10-07 22:59:00,
2013-10-07 18:01:00,63.6,46.1,30.02,WNW,297,0.0,1.0,53,0.00,,,0.01,16,Wunderground v.1.15,2013-10-07 23:01:00,
2013-10-07 18:03:00,63.2,45.8,30.02,WNW,297,0.0,1.0,53,0.00,,,0.01,16,Wunderground v.1.15,2013-10-07 23:03:00,
2013-10-07 18:04:00,63.0,46.1,30.02,WNW,297,0.0,1.0,54,0.00,,,0.01,16,Wunderground v.1.15,2013-10-07 23:04:00,
2013-10-07 18:07:00,62.5,46.1,30.02,WNW,297,0.0,1.0,55,0.00,,,0.01,14,Wunderground v.1.15,2013-10-07 23:07:00,
2013-10-07 18:08:00,62.3,45.9,30.02,WNW,297,0.0,1.0,55,0.00,,,0.01,14,Wunderground v.1.15,2013-10-07 23:08:00,
2013-10-07 18:09:00,62.1,45.7,30.02,WNW,297,0.0,1.0,55,0.00,,,0.01,14,Wunderground v.1.15,2013-10-07 23:09:00,
2013-10-07 18:13:00,61.5,46.1,30.02,WNW,297,0.0,0.0,57,0.00,,,0.01,12,Wunderground v.1.15,2013-10-07 23:13:00,
2013-10-07 18:14:00,61.4,46.5,30.02,WNW,297,0.0,0.0,58,0.00,,,0.01,12,Wunderground v.1.15,2013-10-07 23:14:00,
2013-10-07 18:15:00,61.2,46.3,30.02,WNW,297,0.0,0.0,58,0.00,,,0.01,12,Wunderground v.1.15,2013-10-07 23:15:00,
2013-10-07 18:16:00,61.0,46.1,30.02,WNW,297,0.0,0.0,58,0.00,,,0.01,11,Wunderground v.1.15,2013-10-07 23:16:00,
2013-10-07 18:18:00,60.6,46.2,30.02,WNW,297,0.0,0.0,59,0.00,,,0.01,11,Wunderground v.1.15,2013-10-07 23:18:00,
2013-10-07 18:21:00,60.2,45.8,30.02,WNW,297,0.0,0.0,59,0.00,,,0.01,9,Wunderground v.1.15,2013-10-07 23:21:00,
2013-10-07 18:22:00,60.0,46.1,30.02,WNW,297,0.0,0.0,60,0.00,,,0.01,9,Wunderground v.1.15,2013-10-07 23:22:00,
2013-10-07 18:23:00,59.8,45.9,30.02,WNW,297,0.0,0.0,60,0.00,,,0.01,9,Wunderground v.1.15,2013-10-07 23:23:00,
2013-10-07 18:24:00,59.7,45.8,30.02,WNW,297,0.0,0.0,60,0.00,,,0.01,7,Wunderground v.1.15,2013-10-07 23:24:00,
2013-10-07 18:25:00,59.6,46.1,30.02,WNW,297,0.0,0.0,61,0.00,,,0.01,7,Wunderground v.1.15,2013-10-07 23:25:00,
2013-10-07 18:29:00,59.0,46.0,30.03,WNW,297,0.0,0.0,62,0.00,,,0.01,5,Wunderground v.1.15,2013-10-07 23:29:00,
2013-10-07 18:30:00,58.8,45.8,30.03,WNW,297,0.0,0.0,62,0.00,,,0.01,5,Wunderground v.1.15,2013-10-07 23:30:00,
2013-10-07 18:31:00,58.7,46.1,30.03,WNW,297,0.0,0.0,63,0.00,,,0.01,5,Wunderground v.1.15,2013-10-07 23:31:00,
2013-10-07 18:32:00,58.6,46.0,30.03,WNW,297,0.0,0.0,63,0.00,,,0.01,5,Wunderground v.1.15,2013-10-07 23:32:00,
2013-10-07 18:36:00,58.2,46.1,30.03,WNW,297,0.0,0.0,64,0.00,,,0.01,0,Wunderground v.1.15,2013-10-07 23:36:00,
2013-10-07 18:37:00,58.0,46.3,30.03,WNW,297,0.0,0.0,65,0.00,,,0.01,0,Wunderground v.1.15,2013-10-07 23:37:00,
2013-10-07 18:38:00,57.8,46.1,30.03,WNW,297,0.0,0.0,65,0.00,,,0.01,0,Wunderground v.1.15,2013-10-07 23:38:00,
2013-10-07 18:39:00,57.7,46.0,30.03,WNW,297,0.0,0.0,65,0.00,,,0.01,0,Wunderground v.1.15,2013-10-07 23:39:00,
2013-10-07 18:40:00,57.6,45.9,30.03,WNW,297,0.0,0.0,65,0.00,,,0.01,0,Wunderground v.1.15,2013-10-07 23:40:00,
2013-10-07 18:42:00,57.4,46.1,30.03,WNW,297,0.0,0.0,66,0.00,,,0.01,0,Wunderground v.1.15,2013-10-07 23:42:00,
2013-10-07 18:45:00,57.1,46.2,30.03,WNW,297,0.0,0.0,67,0.00,,,0.01,0,Wunderground v.1.15,2013-10-07 23:45:00,
2013-10-07 18:46:00,57.0,46.1,30.03,WNW,297,0.0,0.0,67,0.00,,,0.01,0,Wunderground v.1.15,2013-10-07 23:46:00,
2013-10-07 18:47:00,56.8,46.0,30.03,WNW,297,0.0,0.0,67,0.00,,,0.01,0,Wunderground v.1.15,2013-10-07 23:47:00,
2013-10-07 18:48:00,56.7,45.9,30.03,WNW,297,0.0,0.0,67,0.00,,,0.01,0,Wunderground v.1.15,2013-10-07 23:48:00,
2013-10-07 18:50:00,56.5,45.7,30.04,WNW,297,0.0,0.0,67,0.00,,,0.01,0,Wunderground v.1.15,2013-10-07 23:50:00,
2013-10-07 18:51:00,56.4,46.0,30.04,WNW,297,0.0,0.0,68,0.00,,,0.01,0,Wunderground v.1.15,2013-10-07 23:51:00,
2013-10-07 18:54:00,56.0,46.0,30.04,WNW,297,0.0,0.0,69,0.00,,,0.01,0,Wunderground v.1.15,2013-10-07 23:54:00,
2013-10-07 18:56:00,55.8,46.2,30.04,WNW,297,0.0,0.0,70,0.00,,,0.01,0,Wunderground v.1.15,2013-10-07 23:56:00,
2013-10-07 18:57:00,55.6,46.0,30.04,WNW,297,0.0,0.0,70,0.00,,,0.01,0,Wunderground v.1.15,2013-10-07 23:57:00,
2013-10-07 18:58:00,55.5,45.9,30.04,WNW,297,0.0,0.0,70,0.00,,,0.01,0,Wunderground v.1.15,2013-10-07 23:58:00,
2013-10-07 18:59:00,55.3,46.1,30.04,WNW,297,0.0,0.0,71,0.00,,,0.01,0,Wunderground v.1.15,2013-10-07 23:59:00,
2013-10-07 19:01:00,55.1,45.9,30.04,WNW,297,0.0,0.0,71,0.00,,,0.01,0,Wunderground v.1.15,2013-10-08 00:01:00,
2013-10-07 19:02:00,55.0,46.1,30.04,WNW,297,0.0,0.0,72,0.00,,,0.01,0,Wunderground v.1.15,2013-10-08 00:02:00,
2013-10-07 19:03:00,54.9,46.0,30.04,WNW,297,0.0,0.0,72,0.00,,,0.01,0,Wunderground v.1.15,2013-10-08 00:03:00,
2013-10-07 19:04:00,54.8,45.9,30.04,WNW,297,0.0,0.0,72,0.00,,,0.01,0,Wunderground v.1.15,2013-10-08 00:04:00,
2013-10-07 19:05:00,54.7,45.8,30.04,WNW,297,0.0,0.0,72,0.00,,,0.01,0,Wunderground v.1.15,2013-10-08 00:05:00,
2013-10-07 19:07:00,54.5,45.7,30.04,WNW,297,0.0,0.0,72,0.00,,,0.01,0,Wunderground v.1.15,2013-10-08 00:07:00,
2013-10-07 19:08:00,54.4,45.9,30.04,WNW,297,0.0,0.0,73,0.00,,,0.01,0,Wunderground v.1.15,2013-10-08 00:08:00,
2013-10-07 19:11:00,54.1,46.0,30.04,WNW,297,0.0,0.0,74,0.00,,,0.01,0,Wunderground v.1.15,2013-10-08 00:11:00,
2013-10-07 19:13:00,53.9,45.8,30.05,WNW,297,0.0,0.0,74,0.00,,,0.01,0,Wunderground v.1.15,2013-10-08 00:13:00,
2013-10-07 19:14:00,53.8,45.7,30.05,WNW,297,0.0,0.0,74,0.00,,,0.01,0,Wunderground v.1.15,2013-10-08 00:14:00,
2013-10-07 19:15:00,53.7,45.6,30.05,WNW,297,0.0,0.0,74,0.00,,,0.01,0,Wunderground v.1.15,2013-10-08 00:15:00,
2013-10-07 19:20:00,53.3,45.6,30.05,WNW,297,0.0,0.0,75,0.00,,,0.01,0,Wunderground v.1.15,2013-10-08 00:20:00,
2013-10-07 19:21:00,53.2,45.5,30.05,WNW,297,0.0,0.0,75,0.00,,,0.01,0,Wunderground v.1.15,2013-10-08 00:21:00,
2013-10-07 19:24:00,53.0,45.3,30.05,WNW,297,0.0,0.0,75,0.00,,,0.01,0,Wunderground v.1.15,2013-10-08 00:24:00,
2013-10-07 19:25:00,52.9,45.2,30.05,WNW,297,0.0,0.0,75,0.00,,,0.01,0,Wunderground v.1.15,2013-10-08 00:25:00,
2013-10-07 19:26:00,52.7,45.0,30.05,WNW,297,0.0,0.0,75,0.00,,,0.01,0,Wunderground v.1.15,2013-10-08 00:26:00,
2013-10-07 19:29:00,52.5,44.8,30.05,WNW,297,0.0,0.0,75,0.00,,,0.01,0,Wunderground v.1.15,2013-10-08 00:29:00,
2013-10-07 19:30:00,52.4,44.7,30.05,WNW,297,0.0,0.0,75,0.00,,,0.01,0,Wunderground v.1.15,2013-10-08 00:30:00,
2013-10-07 19:31:00,52.3,44.6,30.05,WNW,297,0.0,0.0,75,0.00,,,0.01,0,Wunderground v.1.15,2013-10-08 00:31:00,
2013-10-07 19:34:00,52.1,44.8,30.05,WNW,297,0.0,0.0,76,0.00,,,0.01,0,Wunderground v.1.15,2013-10-08 00:34:00,
2013-10-07 19:35:00,51.9,44.9,30.05,WNW,297,0.0,0.0,77,0.00,,,0.01,0,Wunderground v.1.15,2013-10-08 00:35:00,
2013-10-07 19:36:00,51.9,44.9,30.05,WNW,297,0.0,0.0,77,0.00,,,0.01,0,Wunderground v.1.15,2013-10-08 00:36:00,
2013-10-07 19:37:00,51.8,45.2,30.06,WNW,297,0.0,0.0,78,0.00,,,0.01,0,Wunderground v.1.15,2013-10-08 00:37:00,
2013-10-07 19:38:00,51.7,45.1,30.06,WNW,297,0.0,0.0,78,0.00,,,0.01,0,Wunderground v.1.15,2013-10-08 00:38:00,
2013-10-07 19:41:00,51.4,44.8,30.06,WNW,297,0.0,0.0,78,0.00,,,0.01,0,Wunderground v.1.15,2013-10-08 00:41:00,
2013-10-07 19:43:00,51.3,45.0,30.06,WNW,297,0.0,0.0,79,0.00,,,0.01,0,Wunderground v.1.15,2013-10-08 00:43:00,
2013-10-07 19:44:00,51.2,44.9,30.06,WNW,297,0.0,0.0,79,0.00,,,0.01,0,Wunderground v.1.15,2013-10-08 00:44:00,
2013-10-07 19:46:00,50.9,44.6,30.06,WNW,297,0.0,0.0,79,0.00,,,0.01,0,Wunderground v.1.15,2013-10-08 00:46:00,
2013-10-07 19:47:00,50.8,44.9,30.06,WNW,297,0.0,0.0,80,0.00,,,0.01,0,Wunderground v.1.15,2013-10-08 00:47:00,
2013-10-07 19:48:00,50.7,44.8,30.06,WNW,297,0.0,0.0,80,0.00,,,0.01,0,Wunderground v.1.15,2013-10-08 00:48:00,
2013-10-07 19:50:00,50.6,44.7,30.06,WNW,297,0.0,0.0,80,0.00,,,0.01,0,Wunderground v.1.15,2013-10-08 00:50:00,
2013-10-07 19:52:00,50.4,44.8,30.06,WNW,297,0.0,0.0,81,0.00,,,0.01,0,Wunderground v.1.15,2013-10-08 00:52:00,
2013-10-07 19:54:00,50.2,44.6,30.06,WNW,297,0.0,0.0,81,0.00,,,0.01,0,Wunderground v.1.15,2013-10-08 00:54:00,
2013-10-07 19:55:00,50.1,44.5,30.06,WNW,297,0.0,0.0,81,0.00,,,0.01,0,Wunderground v.1.15,2013-10-08 00:55:00,
2013-10-07 19:56:00,50.0,44.4,30.06,WNW,297,0.0,0.0,81,0.00,,,0.01,0,Wunderground v.1.15,2013-10-08 00:56:00,
2013-10-07 19:58:00,49.8,44.2,30.06,WNW,297,0.0,0.0,81,0.00,,,0.01,0,Wunderground v.1.15,2013-10-08 00:58:00,
2013-10-07 19:59:00,49.7,44.1,30.06,WNW,297,0.0,0.0,81,0.00,,,0.01,0,Wunderground v.1.15,2013-10-08 00:59:00,
2013-10-07 20:00:00,49.7,44.1,30.06,WNW,297,0.0,0.0,81,0.00,,,0.01,0,Wunderground v.1.15,2013-10-08 01:00:00,
2013-10-07 20:01:00,49.6,44.0,30.06,WNW,297,0.0,0.0,81,0.00,,,0.01,0,Wunderground v.1.15,2013-10-08 01:01:00,
2013-10-07 20:02:00,49.6,44.0,30.06,WNW,297,0.0,0.0,81,0.00,,,0.01,0,Wunderground v.1.15,2013-10-08 01:02:00,
2013-10-07 20:07:00,49.3,44.0,30.07,WNW,297,0.0,0.0,82,0.00,,,0.01,0,Wunderground v.1.15,2013-10-08 01:07:00,
2013-10-07 20:08:00,49.2,43.9,30.06,WNW,297,0.0,0.0,82,0.00,,,0.01,0,Wunderground v.1.15,2013-10-08 01:08:00,
2013-10-07 20:10:00,49.1,43.8,30.07,WNW,297,0.0,0.0,82,0.00,,,0.01,0,Wunderground v.1.15,2013-10-08 01:10:00,
2013-10-07 20:13:00,48.8,43.9,30.07,WNW,297,0.0,0.0,83,0.00,,,0.01,0,Wunderground v.1.15,2013-10-08 01:13:00,
2013-10-07 20:14:00,48.8,43.9,30.07,WNW,297,0.0,0.0,83,0.00,,,0.01,0,Wunderground v.1.15,2013-10-08 01:14:00,
2013-10-07 20:16:00,48.7,43.8,30.07,WNW,297,0.0,0.0,83,0.00,,,0.01,0,Wunderground v.1.15,2013-10-08 01:16:00,
2013-10-07 20:18:00,48.5,43.6,30.07,WNW,297,0.0,0.0,83,0.00,,,0.01,0,Wunderground v.1.15,2013-10-08 01:18:00,
2013-10-07 20:19:00,48.5,43.6,30.07,WNW,297,0.0,0.0,83,0.00,,,0.01,0,Wunderground v.1.15,2013-10-08 01:19:00,
2013-10-07 20:20:00,48.4,43.5,30.07,WNW,297,0.0,0.0,83,0.00,,,0.01,0,Wunderground v.1.15,2013-10-08 01:20:00,
2013-10-07 20:24:00,48.2,43.3,30.07,WNW,297,0.0,0.0,83,0.00,,,0.01,0,Wunderground v.1.15,2013-10-08 01:24:00,
2013-10-07 20:25:00,48.1,43.2,30.07,WNW,297,0.0,0.0,83,0.00,,,0.01,0,Wunderground v.1.15,2013-10-08 01:25:00,
2013-10-07 20:26:00,48.1,43.2,30.07,WNW,297,0.0,0.0,83,0.00,,,0.01,0,Wunderground v.1.15,2013-10-08 01:26:00,
2013-10-07 20:27:00,48.0,43.1,30.07,WNW,297,0.0,0.0,83,0.00,,,0.01,0,Wunderground v.1.15,2013-10-08 01:27:00,
2013-10-07 20:31:00,47.9,43.3,30.07,WNW,297,0.0,0.0,84,0.00,,,0.01,0,Wunderground v.1.15,2013-10-08 01:31:00,
2013-10-07 20:32:00,47.8,43.2,30.08,WNW,297,0.0,0.0,84,0.00,,,0.01,0,Wunderground v.1.15,2013-10-08 01:32:00,
2013-10-07 20:34:00,47.7,43.1,30.08,WNW,297,0.0,0.0,84,0.00,,,0.01,0,Wunderground v.1.15,2013-10-08 01:34:00,
2013-10-07 20:36:00,47.6,43.0,30.08,WNW,297,0.0,0.0,84,0.00,,,0.01,0,Wunderground v.1.15,2013-10-08 01:36:00,
2013-10-07 20:38:00,47.5,42.9,30.08,WNW,297,0.0,0.0,84,0.00,,,0.01,0,Wunderground v.1.15,2013-10-08 01:38:00,
2013-10-07 20:39:00,47.5,42.9,30.08,WNW,297,0.0,0.0,84,0.00,,,0.01,0,Wunderground v.1.15,2013-10-08 01:39:00,
2013-10-07 20:41:00,47.4,42.8,30.08,WNW,297,0.0,0.0,84,0.00,,,0.01,0,Wunderground v.1.15,2013-10-08 01:41:00,
2013-10-07 20:42:00,47.3,42.7,30.08,WNW,297,0.0,0.0,84,0.00,,,0.01,0,Wunderground v.1.15,2013-10-08 01:42:00,
2013-10-07 20:43:00,47.3,42.7,30.08,WNW,297,0.0,0.0,84,0.00,,,0.01,0,Wunderground v.1.15,2013-10-08 01:43:00,
2013-10-07 20:44:00,47.3,42.7,30.08,WNW,297,0.0,0.0,84,0.00,,,0.01,0,Wunderground v.1.15,2013-10-08 01:44:00,
2013-10-07 20:48:00,47.0,42.7,30.08,WNW,297,0.0,0.0,85,0.00,,,0.01,0,Wunderground v.1.15,2013-10-08 01:48:00,
2013-10-07 20:49:00,46.9,42.6,30.08,WNW,297,0.0,0.0,85,0.00,,,0.01,0,Wunderground v.1.15,2013-10-08 01:49:00,
2013-10-07 20:50:00,46.9,42.6,30.08,WNW,297,0.0,0.0,85,0.00,,,0.01,0,Wunderground v.1.15,2013-10-08 01:50:00,
2013-10-07 20:51:00,46.8,42.5,30.08,WNW,297,0.0,0.0,85,0.00,,,0.01,0,Wunderground v.1.15,2013-10-08 01:51:00,
2013-10-07 20:52:00,46.8,42.5,30.08,WNW,297,0.0,0.0,85,0.00,,,0.01,0,Wunderground v.1.15,2013-10-08 01:52:00,
2013-10-07 20:53:00,46.8,42.5,30.08,WNW,297,0.0,0.0,85,0.00,,,0.01,0,Wunderground v.1.15,2013-10-08 01:53:00,
2013-10-07 20:57:00,46.6,42.3,30.08,WNW,297,0.0,0.0,85,0.00,,,0.01,0,Wunderground v.1.15,2013-10-08 01:57:00,
2013-10-07 20:58:00,46.5,42.2,30.08,WNW,297,0.0,0.0,85,0.00,,,0.01,0,Wunderground v.1.15,2013-10-08 01:58:00,
2013-10-07 20:59:00,46.5,42.2,30.08,WNW,297,0.0,0.0,85,0.00,,,0.01,0,Wunderground v.1.15,2013-10-08 01:59:00,
2013-10-07 21:01:00,46.4,42.1,30.08,WNW,297,0.0,0.0,85,0.00,,,0.01,0,Wunderground v.1.15,2013-10-08 02:01:00,
2013-10-07 21:02:00,46.4,42.1,30.08,WNW,297,0.0,0.0,85,0.00,,,0.01,0,Wunderground v.1.15,2013-10-08 02:02:00,
2013-10-07 21:05:00,46.2,42.2,30.08,WNW,297,0.0,0.0,86,0.00,,,0.01,0,Wunderground v.1.15,2013-10-08 02:05:00,
2013-10-07 21:06:00,46.1,42.1,30.09,WNW,297,0.0,0.0,86,0.00,,,0.01,0,Wunderground v.1.15,2013-10-08 02:06:00,
2013-10-07 21:07:00,46.0,42.0,30.09,WNW,297,0.0,0.0,86,0.00,,,0.01,0,Wunderground v.1.15,2013-10-08 02:07:00,
2013-10-07 21:10:00,45.9,41.9,30.09,WNW,297,0.0,0.0,86,0.00,,,0.01,0,Wunderground v.1.15,2013-10-08 02:10:00,
2013-10-07 21:11:00,45.9,41.9,30.09,WNW,297,0.0,0.0,86,0.00,,,0.01,0,Wunderground v.1.15,2013-10-08 02:11:00,
2013-10-07 21:12:00,45.9,41.9,30.09,WNW,297,0.0,0.0,86,0.00,,,0.01,0,Wunderground v.1.15,2013-10-08 02:12:00,
2013-10-07 21:14:00,45.8,41.9,30.09,WNW,297,0.0,0.0,86,0.00,,,0.01,0,Wunderground v.1.15,2013-10-08 02:14:00,
2013-10-07 21:16:00,45.7,42.1,30.09,WNW,297,0.0,0.0,87,0.00,,,0.01,0,Wunderground v.1.15,2013-10-08 02:16:00,
2013-10-07 21:17:00,45.6,42.0,30.09,WNW,297,0.0,0.0,87,0.00,,,0.01,0,Wunderground v.1.15,2013-10-08 02:17:00,
2013-10-07 21:20:00,45.5,41.9,30.10,WNW,297,0.0,0.0,87,0.00,,,0.01,0,Wunderground v.1.15,2013-10-08 02:20:00,
2013-10-07 21:23:00,45.4,41.8,30.09,WNW,297,0.0,0.0,87,0.00,,,0.01,0,Wunderground v.1.15,2013-10-08 02:23:00,
2013-10-07 21:24:00,45.4,41.8,30.10,WNW,297,0.0,0.0,87,0.00,,,0.01,0,Wunderground v.1.15,2013-10-08 02:24:00,
2013-10-07 21:25:00,45.4,41.8,30.10,WNW,297,0.0,0.0,87,0.00,,,0.01,0,Wunderground v.1.15,2013-10-08 02:25:00,
2013-10-07 21:26:00,45.3,41.7,30.10,WNW,297,0.0,0.0,87,0.00,,,0.01,0,Wunderground v.1.15,2013-10-08 02:26:00,
2013-10-07 21:28:00,45.1,41.5,30.10,WNW,297,0.0,0.0,87,0.00,,,0.01,0,Wunderground v.1.15,2013-10-08 02:28:00,
2013-10-07 21:30:00,45.1,41.5,30.10,WNW,297,0.0,0.0,87,0.00,,,0.01,0,Wunderground v.1.15,2013-10-08 02:30:00,
2013-10-07 21:31:00,45.0,41.4,30.10,WNW,297,0.0,0.0,87,0.00,,,0.01,0,Wunderground v.1.15,2013-10-08 02:31:00,
2013-10-07 21:34:00,44.9,41.3,30.10,WNW,297,0.0,0.0,87,0.00,,,0.01,0,Wunderground v.1.15,2013-10-08 02:34:00,
2013-10-07 21:35:00,44.9,41.6,30.10,WNW,297,0.0,0.0,88,0.00,,,0.01,0,Wunderground v.1.15,2013-10-08 02:35:00,
2013-10-07 21:36:00,44.9,41.6,30.10,WNW,297,0.0,0.0,88,0.00,,,0.01,0,Wunderground v.1.15,2013-10-08 02:36:00,
2013-10-07 21:37:00,44.8,41.5,30.10,WNW,297,0.0,0.0,88,0.00,,,0.01,0,Wunderground v.1.15,2013-10-08 02:37:00,
2013-10-07 21:40:00,44.8,41.5,30.10,WNW,297,0.0,0.0,88,0.00,,,0.01,0,Wunderground v.1.15,2013-10-08 02:40:00,
2013-10-07 21:41:00,44.7,41.4,30.10,WNW,297,0.0,0.0,88,0.00,,,0.01,0,Wunderground v.1.15,2013-10-08 02:41:00,
2013-10-07 21:44:00,44.6,42.4,30.10,WNW,297,0.0,0.0,92,0.00,,,0.01,0,Wunderground v.1.15,2013-10-08 02:44:00,
2013-10-07 21:45:00,44.6,41.3,30.10,WNW,297,0.0,0.0,88,0.00,,,0.01,0,Wunderground v.1.15,2013-10-08 02:45:00,
2013-10-07 21:46:00,44.5,41.2,30.10,WNW,297,0.0,0.0,88,0.00,,,0.01,0,Wunderground v.1.15,2013-10-08 02:46:00,
2013-10-07 21:48:00,44.5,41.2,30.10,WNW,297,0.0,0.0,88,0.00,,,0.01,0,Wunderground v.1.15,2013-10-08 02:48:00,
2013-10-07 21:49:00,44.5,41.2,30.10,WNW,297,0.0,0.0,88,0.00,,,0.01,0,Wunderground v.1.15,2013-10-08 02:49:00,
2013-10-07 21:50:00,44.4,41.1,30.10,WNW,297,0.0,0.0,88,0.00,,,0.01,0,Wunderground v.1.15,2013-10-08 02:50:00,
2013-10-07 21:52:00,44.3,41.0,30.10,WNW,297,0.0,0.0,88,0.00,,,0.01,0,Wunderground v.1.15,2013-10-08 02:52:00,
2013-10-07 21:56:00,44.2,41.2,30.10,WNW,297,0.0,0.0,89,0.00,,,0.01,0,Wunderground v.1.15,2013-10-08 02:56:00,
2013-10-07 21:57:00,44.2,41.2,30.10,WNW,297,0.0,0.0,89,0.00,,,0.01,0,Wunderground v.1.15,2013-10-08 02:57:00,
2013-10-07 21:58:00,44.1,40.8,30.10,WNW,297,0.0,0.0,88,0.00,,,0.01,0,Wunderground v.1.15,2013-10-08 02:58:00,
2013-10-07 21:59:00,44.2,40.9,30.10,WNW,297,0.0,0.0,88,0.00,,,0.01,0,Wunderground v.1.15,2013-10-08 02:59:00,
2013-10-07 22:00:00,44.1,41.1,30.10,WNW,297,0.0,0.0,89,0.00,,,0.01,0,Wunderground v.1.15,2013-10-08 03:00:00,
2013-10-07 22:02:00,44.1,41.1,30.10,WNW,297,0.0,0.0,89,0.00,,,0.01,0,Wunderground v.1.15,2013-10-08 03:02:00,
2013-10-07 22:04:00,44.0,41.0,30.11,WNW,297,0.0,0.0,89,0.00,,,0.01,0,Wunderground v.1.15,2013-10-08 03:04:00,
2013-10-07 22:06:00,43.9,40.9,30.11,WNW,297,0.0,0.0,89,0.00,,,0.01,0,Wunderground v.1.15,2013-10-08 03:06:00,
2013-10-07 22:07:00,43.9,40.9,30.11,WNW,297,0.0,0.0,89,0.00,,,0.01,0,Wunderground v.1.15,2013-10-08 03:07:00,
2013-10-07 22:09:00,43.8,40.8,30.11,WNW,297,0.0,0.0,89,0.00,,,0.01,0,Wunderground v.1.15,2013-10-08 03:09:00,
2013-10-07 22:10:00,43.8,40.8,30.11,WNW,297,0.0,0.0,89,0.00,,,0.01,0,Wunderground v.1.15,2013-10-08 03:10:00,
2013-10-07 22:12:00,43.7,40.7,30.11,WNW,297,0.0,0.0,89,0.00,,,0.01,0,Wunderground v.1.15,2013-10-08 03:12:00,
2013-10-07 22:14:00,43.7,40.7,30.11,WNW,297,0.0,0.0,89,0.00,,,0.01,0,Wunderground v.1.15,2013-10-08 03:14:00,
2013-10-07 22:16:00,43.6,40.6,30.11,WNW,297,0.0,0.0,89,0.00,,,0.01,0,Wunderground v.1.15,2013-10-08 03:16:00,
2013-10-07 22:17:00,43.6,40.6,30.11,WNW,297,0.0,0.0,89,0.00,,,0.01,0,Wunderground v.1.15,2013-10-08 03:17:00,
2013-10-07 22:22:00,43.4,40.4,30.11,WNW,297,0.0,0.0,89,0.00,,,0.01,0,Wunderground v.1.15,2013-10-08 03:22:00,
2013-10-07 22:23:00,43.4,40.7,30.11,WNW,297,0.0,0.0,90,0.00,,,0.01,0,Wunderground v.1.15,2013-10-08 03:23:00,
2013-10-07 22:24:00,43.3,40.6,30.11,WNW,297,0.0,0.0,90,0.00,,,0.01,0,Wunderground v.1.15,2013-10-08 03:24:00,
2013-10-07 22:27:00,43.3,40.6,30.11,WNW,297,0.0,0.0,90,0.00,,,0.01,0,Wunderground v.1.15,2013-10-08 03:27:00,
2013-10-07 22:30:00,43.2,40.5,30.11,WNW,297,0.0,0.0,90,0.00,,,0.01,0,Wunderground v.1.15,2013-10-08 03:30:00,
2013-10-07 22:31:00,43.1,40.4,30.11,WNW,297,0.0,0.0,90,0.00,,,0.01,0,Wunderground v.1.15,2013-10-08 03:31:00,
2013-10-07 22:32:00,43.1,40.4,30.11,WNW,297,0.0,0.0,90,0.00,,,0.01,0,Wunderground v.1.15,2013-10-08 03:32:00,
2013-10-07 22:35:00,43.0,40.3,30.11,WNW,297,0.0,0.0,90,0.00,,,0.01,0,Wunderground v.1.15,2013-10-08 03:35:00,
2013-10-07 22:37:00,43.0,40.3,30.11,WNW,297,0.0,0.0,90,0.00,,,0.01,0,Wunderground v.1.15,2013-10-08 03:37:00,
2013-10-07 22:38:00,42.9,40.2,30.11,WNW,297,0.0,0.0,90,0.00,,,0.01,0,Wunderground v.1.15,2013-10-08 03:38:00,
2013-10-07 22:40:00,42.9,40.2,30.11,WNW,297,0.0,0.0,90,0.00,,,0.01,0,Wunderground v.1.15,2013-10-08 03:40:00,
2013-10-07 22:42:00,42.8,40.1,30.11,WNW,297,0.0,0.0,90,0.00,,,0.01,0,Wunderground v.1.15,2013-10-08 03:42:00,
2013-10-07 22:44:00,42.8,40.1,30.11,WNW,297,0.0,0.0,90,0.00,,,0.01,0,Wunderground v.1.15,2013-10-08 03:44:00,
2013-10-07 22:45:00,42.8,40.1,30.11,WNW,297,0.0,0.0,90,0.00,,,0.01,0,Wunderground v.1.15,2013-10-08 03:45:00,
2013-10-07 22:46:00,42.7,40.0,30.11,WNW,297,0.0,0.0,90,0.00,,,0.01,0,Wunderground v.1.15,2013-10-08 03:46:00,
2013-10-07 22:48:00,42.7,40.0,30.11,WNW,297,0.0,0.0,90,0.00,,,0.01,0,Wunderground v.1.15,2013-10-08 03:48:00,
2013-10-07 22:49:00,42.7,40.0,30.11,WNW,297,0.0,0.0,90,0.00,,,0.01,0,Wunderground v.1.15,2013-10-08 03:49:00,
2013-10-07 22:50:00,42.7,40.0,30.11,WNW,297,0.0,0.0,90,0.00,,,0.01,0,Wunderground v.1.15,2013-10-08 03:50:00,
2013-10-07 22:51:00,42.6,39.9,30.11,WNW,297,0.0,0.0,90,0.00,,,0.01,0,Wunderground v.1.15,2013-10-08 03:51:00,
2013-10-07 22:55:00,42.5,40.1,30.11,WNW,297,0.0,0.0,91,0.00,,,0.01,0,Wunderground v.1.15,2013-10-08 03:55:00,
2013-10-07 22:57:00,42.5,39.8,30.11,WNW,297,0.0,0.0,90,0.00,,,0.01,0,Wunderground v.1.15,2013-10-08 03:57:00,
2013-10-07 22:58:00,42.4,39.7,30.11,WNW,297,0.0,0.0,90,0.00,,,0.01,0,Wunderground v.1.15,2013-10-08 03:58:00,
2013-10-07 23:00:00,42.4,39.7,30.11,WNW,297,0.0,0.0,90,0.00,,,0.01,0,Wunderground v.1.15,2013-10-08 04:00:00,
2013-10-07 23:01:00,42.3,39.6,30.11,WNW,297,0.0,0.0,90,0.00,,,0.01,0,Wunderground v.1.15,2013-10-08 04:01:00,
2013-10-07 23:03:00,42.3,39.6,30.11,WNW,297,0.0,0.0,90,0.00,,,0.01,0,Wunderground v.1.15,2013-10-08 04:03:00,
2013-10-07 23:05:00,42.2,39.5,30.11,WNW,297,0.0,0.0,90,0.00,,,0.01,0,Wunderground v.1.15,2013-10-08 04:05:00,
2013-10-07 23:06:00,42.2,39.5,30.11,WNW,297,0.0,0.0,90,0.00,,,0.01,0,Wunderground v.1.15,2013-10-08 04:06:00,
2013-10-07 23:08:00,42.1,39.4,30.12,WNW,297,0.0,0.0,90,0.00,,,0.01,0,Wunderground v.1.15,2013-10-08 04:08:00,
2013-10-07 23:09:00,42.1,39.4,30.12,WNW,297,0.0,0.0,90,0.00,,,0.01,0,Wunderground v.1.15,2013-10-08 04:09:00,
2013-10-07 23:11:00,42.0,39.3,30.12,WNW,297,0.0,0.0,90,0.00,,,0.01,0,Wunderground v.1.15,2013-10-08 04:11:00,
2013-10-07 23:14:00,41.9,39.2,30.12,WNW,297,0.0,0.0,90,0.00,,,0.01,0,Wunderground v.1.15,2013-10-08 04:14:00,
2013-10-07 23:16:00,41.9,39.5,30.12,WNW,297,0.0,0.0,91,0.00,,,0.01,0,Wunderground v.1.15,2013-10-08 04:16:00,
2013-10-07 23:19:00,41.8,39.1,30.12,WNW,297,0.0,0.0,90,0.00,,,0.01,0,Wunderground v.1.15,2013-10-08 04:19:00,
2013-10-07 23:22:00,41.7,39.0,30.12,WNW,297,0.0,0.0,90,0.00,,,0.01,0,Wunderground v.1.15,2013-10-08 04:22:00,
2013-10-07 23:23:00,41.7,39.0,30.12,WNW,297,0.0,0.0,90,0.00,,,0.01,0,Wunderground v.1.15,2013-10-08 04:23:00,
2013-10-07 23:26:00,41.6,39.2,30.12,WNW,297,0.0,0.0,91,0.00,,,0.01,0,Wunderground v.1.15,2013-10-08 04:26:00,
2013-10-07 23:28:00,41.5,39.1,30.12,WNW,297,0.0,0.0,91,0.00,,,0.01,0,Wunderground v.1.15,2013-10-08 04:28:00,
2013-10-07 23:32:00,41.5,39.1,30.12,WNW,297,0.0,0.0,91,0.00,,,0.01,0,Wunderground v.1.15,2013-10-08 04:32:00,
2013-10-07 23:33:00,41.5,39.1,30.12,WNW,297,0.0,0.0,91,0.00,,,0.01,0,Wunderground v.1.15,2013-10-08 04:33:00,
2013-10-07 23:34:00,41.5,39.1,30.12,WNW,297,0.0,0.0,91,0.00,,,0.01,0,Wunderground v.1.15,2013-10-08 04:34:00,
2013-10-07 23:37:00,41.4,39.0,30.12,WNW,297,0.0,0.0,91,0.00,,,0.01,0,Wunderground v.1.15,2013-10-08 04:37:00,
2013-10-07 23:38:00,41.4,39.0,30.12,WNW,297,0.0,0.0,91,0.00,,,0.01,0,Wunderground v.1.15,2013-10-08 04:38:00,
2013-10-07 23:40:00,41.4,39.0,30.12,WNW,297,0.0,0.0,91,0.00,,,0.01,0,Wunderground v.1.15,2013-10-08 04:40:00,
2013-10-07 23:41:00,41.4,39.0,30.12,WNW,297,0.0,0.0,91,0.00,,,0.01,0,Wunderground v.1.15,2013-10-08 04:41:00,
2013-10-07 23:42:00,41.3,38.9,30.12,WNW,297,0.0,0.0,91,0.00,,,0.01,0,Wunderground v.1.15,2013-10-08 04:42:00,
2013-10-07 23:44:00,41.3,38.9,30.12,WNW,297,0.0,0.0,91,0.00,,,0.01,0,Wunderground v.1.15,2013-10-08 04:44:00,
2013-10-07 23:47:00,41.2,38.8,30.12,WNW,297,0.0,0.0,91,0.00,,,0.01,0,Wunderground v.1.15,2013-10-08 04:47:00,
2013-10-07 23:49:00,41.1,38.7,30.12,WNW,297,0.0,0.0,91,0.00,,,0.01,0,Wunderground v.1.15,2013-10-08 04:49:00,
2013-10-07 23:50:00,41.1,38.7,30.12,WNW,297,0.0,0.0,91,0.00,,,0.01,0,Wunderground v.1.15,2013-10-08 04:50:00,
2013-10-07 23:53:00,41.0,38.6,30.12,WNW,297,0.0,0.0,91,0.00,,,0.01,0,Wunderground v.1.15,2013-10-08 04:53:00,
2013-10-07 23:55:00,41.0,38.6,30.12,WNW,297,0.0,0.0,91,0.00,,,0.01,0,Wunderground v.1.15,2013-10-08 04:55:00,
2013-10-07 23:57:00,41.0,38.6,30.12,WNW,297,0.0,0.0,91,0.00,,,0.01,0,Wunderground v.1.15,2013-10-08 04:57:00,
2013-10-07 23:59:00,40.9,38.5,30.12,WNW,297,0.0,0.0,91,0.00,,,0.01,0,Wunderground v.1.15,2013-10-08 04:59:00,